M I D A S
Marine Information and Data Acquisition System
Tripno 1232 of the Zeeleeuw from 2007-03-16 08:07:43 to 2007-03-16 14:35:49
Back to CruiseResearch ActivitiesStationsMapUnderway DataData graphs

EquipmentUnitsComment
TimeDGPSUTC
LatitudeDGPSDM.mWGS84
LongitudeDGPSDM.mWGS84
TemperatureSBE03/SBE38deg celciusITS90
ConductivitySBE21S/mITS90
SalinitySBE21 Practical Salinity Units
ChlorophylAChelsea fluorimeterg/lCalibrated in Aceton
Missing or incorrect values are displayed as -999
Sea surface data collected by the RV Zeeleeuw from 2007-03-16 08:07:44 to 2007-03-16 14:45:47
                                                                                    Next 1000 lines
Time Latitude Longitude Temperature Conductivity Salinity ChlorophylA
2007-03-16 08:07:54 51°13.596 2°56.093 16.6599 0.008797 0.049009 -2.871232
2007-03-16 08:07:59 51°13.597 2°56.091 16.5786 0.008797 0.049008 -2.871232
2007-03-16 08:08:04 51°13.598 2°56.089 16.5256 0.008797 0.049008 -2.871232
2007-03-16 08:08:09 51°13.599 2°56.086 16.5216 0.008797 0.049007 -2.871232
2007-03-16 08:08:14 51°13.6 2°56.082 16.5605 0.008797 0.049008 -2.871232
2007-03-16 08:08:19 51°13.602 2°56.077 16.5738 0.008797 0.049008 -2.871232
2007-03-16 08:08:24 51°13.603 2°56.072 16.6407 0.008797 0.049008 -2.871232
2007-03-16 08:08:29 51°13.605 2°56.066 16.6294 0.008797 0.049008 -2.871232
2007-03-16 08:08:34 51°13.607 2°56.06 16.6475 0.008797 0.049008 -2.871232
2007-03-16 08:08:39 51°13.609 2°56.053 16.6383 0.008797 0.049007 -2.871232
2007-03-16 08:08:44 51°13.611 2°56.046 16.6535 0.008797 0.049007 -2.871232
2007-03-16 08:08:49 51°13.614 2°56.038 16.6608 0.008797 0.049007 -2.871232
2007-03-16 08:08:54 51°13.616 2°56.03 16.6606 0.008797 0.049007 -2.871232
2007-03-16 08:08:59 51°13.619 2°56.022 16.6463 0.008797 0.049007 -2.871232
2007-03-16 08:09:04 51°13.622 2°56.013 16.6939 0.008797 0.049006 -2.871232
2007-03-16 08:09:09 51°13.625 2°56.003 16.6719 0.008797 0.049006 -2.871232
2007-03-16 08:09:14 51°13.628 2°55.993 16.6638 0.008797 0.049006 -2.871232
2007-03-16 08:09:19 51°13.631 2°55.983 16.6319 0.008797 0.049006 -2.871232
2007-03-16 08:09:24 51°13.634 2°55.973 16.7093 0.008797 0.049005 -2.871232
2007-03-16 08:09:29 51°13.638 2°55.962 16.6894 0.008797 0.049005 -2.871232
2007-03-16 08:09:34 51°13.642 2°55.951 16.6915 0.008797 0.049004 -2.871232
2007-03-16 08:09:39 51°13.645 2°55.94 16.7054 0.008797 0.049003 -2.871232
2007-03-16 08:09:44 51°13.649 2°55.929 16.6961 0.008797 0.049003 -2.871232
2007-03-16 08:09:49 51°13.653 2°55.918 16.713 0.008797 0.049003 -2.871232
2007-03-16 08:09:54 51°13.656 2°55.907 16.7153 0.008797 0.049003 -2.871232
2007-03-16 08:09:59 51°13.66 2°55.896 16.7311 0.008797 0.049002 -2.871232
2007-03-16 08:10:04 51°13.663 2°55.886 16.7221 0.008797 0.049002 -2.871232
2007-03-16 08:10:09 51°13.666 2°55.876 16.7089 0.008797 0.049001 -2.871232
2007-03-16 08:10:14 51°13.669 2°55.866 16.7289 0.008797 0.049001 -2.871232
2007-03-16 08:10:19 51°13.671 2°55.856 16.7276 0.008797 0.049 -2.871232
2007-03-16 08:10:24 51°13.673 2°55.847 16.7213 0.008797 0.049 -2.871232
2007-03-16 08:10:29 51°13.675 2°55.837 16.7086 0.008797 0.048999 -2.871232
2007-03-16 08:10:34 51°13.677 2°55.829 16.7236 0.008797 0.048999 -2.871232
2007-03-16 08:10:39 51°13.679 2°55.82 16.7337 0.008797 0.048998 -2.871232
2007-03-16 08:10:44 51°13.68 2°55.812 16.7561 0.008797 0.048998 -2.871232
2007-03-16 08:10:49 51°13.681 2°55.804 16.7346 0.008797 0.048997 -2.871232
2007-03-16 08:10:54 51°13.682 2°55.796 16.7285 0.008797 0.048997 -2.871232
2007-03-16 08:10:59 51°13.683 2°55.789 16.7321 0.008797 0.048996 -2.871232
2007-03-16 08:11:04 51°13.683 2°55.782 16.7333 0.008797 0.048995 -2.871232
2007-03-16 08:11:09 51°13.684 2°55.775 16.7333 0.008797 0.048994 -2.871232
2007-03-16 08:11:14 51°13.684 2°55.768 16.737 0.008797 0.048994 -2.871232
2007-03-16 08:11:19 51°13.684 2°55.762 16.7384 0.008797 0.048994 -2.871232
2007-03-16 08:11:24 51°13.684 2°55.756 16.7275 0.008797 0.048993 -2.871232
2007-03-16 08:11:29 51°13.684 2°55.751 16.7393 0.008797 0.048993 -2.871232
2007-03-16 08:11:34 51°13.684 2°55.746 16.7412 0.008797 0.048992 -2.871232
2007-03-16 08:11:39 51°13.684 2°55.741 16.7412 0.008797 0.048991 -2.871232
2007-03-16 08:11:44 51°13.683 2°55.738 16.743 0.008797 0.04899 -2.871232
2007-03-16 08:11:49 51°13.683 2°55.736 16.7743 0.008797 0.04899 -2.871232
2007-03-16 08:11:54 51°13.684 2°55.735 16.769 0.008797 0.048989 -2.871232
2007-03-16 08:11:59 51°13.684 2°55.735 16.7882 0.008797 0.048989 -2.871232
2007-03-16 08:12:04 51°13.685 2°55.735 16.7764 0.008797 0.048988 -2.871232
2007-03-16 08:12:09 51°13.686 2°55.736 16.7826 0.008797 0.048987 -2.871232
2007-03-16 08:12:14 51°13.688 2°55.737 16.7799 0.008797 0.048987 -2.871232
2007-03-16 08:12:19 51°13.689 2°55.739 16.7832 0.008797 0.048987 -2.871232
2007-03-16 08:12:24 51°13.692 2°55.741 16.7825 0.008797 0.048986 -2.871232
2007-03-16 08:12:29 51°13.695 2°55.742 16.776 0.008797 0.048985 -2.871232
2007-03-16 08:12:34 51°13.698 2°55.743 16.744 0.008797 0.048985 -2.871232
2007-03-16 08:12:39 51°13.701 2°55.743 16.7713 0.008797 0.048984 -2.871232
2007-03-16 08:12:44 51°13.704 2°55.744 16.7815 0.008797 0.048984 -2.871232
2007-03-16 08:12:49 51°13.708 2°55.743 16.7869 0.008797 0.048984 -2.871232
2007-03-16 08:12:54 51°13.712 2°55.742 16.7924 0.008797 0.048983 -2.871232
2007-03-16 08:12:59 51°13.716 2°55.74 16.8254 0.008797 0.048982 -2.871232
2007-03-16 08:13:04 51°13.721 2°55.737 16.8221 0.008797 0.048982 -2.871232
2007-03-16 08:13:09 51°13.726 2°55.732 16.7975 0.008797 0.048981 -2.871232
2007-03-16 08:13:14 51°13.732 2°55.726 16.7447 0.008797 0.048981 -2.871232
2007-03-16 08:13:19 51°13.738 2°55.72 16.74 0.008797 0.04898 -2.871232
2007-03-16 08:13:24 51°13.745 2°55.712 16.7317 0.008797 0.048979 -2.871232
2007-03-16 08:13:29 51°13.753 2°55.704 16.6633 0.008797 0.048978 -2.871232
2007-03-16 08:13:34 51°13.762 2°55.695 16.6003 0.008797 0.048978 -2.871232
2007-03-16 08:13:39 51°13.771 2°55.686 16.6049 0.008797 0.048977 -2.871232
2007-03-16 08:13:44 51°13.781 2°55.676 16.5177 0.008797 0.048977 -2.871232
2007-03-16 08:13:49 51°13.791 2°55.666 16.4927 0.008797 0.048976 -2.871232
2007-03-16 08:13:54 51°13.802 2°55.656 16.5008 0.008797 0.048974 -2.871232
2007-03-16 08:13:59 51°13.814 2°55.646 16.3774 0.008797 0.048973 -2.871232
2007-03-16 08:14:04 51°13.825 2°55.637 16.3828 0.008797 0.048968 -2.871232
2007-03-16 08:14:09 51°13.838 2°55.628 16.4143 0.008797 0.048967 -2.871232
2007-03-16 08:14:14 51°13.85 2°55.619 16.4241 0.008797 0.048968 -2.871232
2007-03-16 08:14:19 51°13.862 2°55.609 16.4288 0.008797 0.048968 -2.871232
2007-03-16 08:14:24 51°13.874 2°55.601 16.47 0.008797 0.048968 -2.871232
2007-03-16 08:14:29 51°13.886 2°55.592 16.4756 0.008797 0.04897 -2.871232
2007-03-16 08:14:34 51°13.899 2°55.583 16.4526 0.008797 0.04897 -2.871232
2007-03-16 08:14:39 51°13.911 2°55.575 16.4798 0.008797 0.048968 -2.871232
2007-03-16 08:14:44 51°13.924 2°55.567 16.4926 0.008797 0.048969 -2.871232
2007-03-16 08:14:49 51°13.936 2°55.558 16.4829 0.008797 0.048969 -2.871232
2007-03-16 08:14:54 51°13.947 2°55.55 16.5164 0.008797 0.04897 -2.871232
2007-03-16 08:14:59 51°13.958 2°55.542 16.5371 0.008797 0.048971 -2.871232
2007-03-16 08:15:04 51°13.969 2°55.535 16.5388 0.008797 0.048972 -2.871232
2007-03-16 08:15:09 51°13.979 2°55.527 16.5411 0.008797 0.048972 -2.871232
2007-03-16 08:15:14 51°13.989 2°55.52 16.5556 0.008797 0.048972 -2.871232
2007-03-16 08:15:19 51°13.999 2°55.512 16.5618 0.008797 0.048972 -2.871232
2007-03-16 08:15:24 51°14.009 2°55.505 16.5627 0.008797 0.048972 -2.871232
2007-03-16 08:15:29 51°14.019 2°55.498 16.5577 0.008797 0.048972 -2.871232
2007-03-16 08:15:34 51°14.028 2°55.492 16.5668 0.008797 0.048973 -2.871232
2007-03-16 08:15:39 51°14.038 2°55.485 16.5773 0.008797 0.048974 -2.871232
2007-03-16 08:15:44 51°14.047 2°55.479 16.5845 0.008797 0.048974 -2.871232
2007-03-16 08:15:49 51°14.057 2°55.472 16.5836 0.008797 0.048974 -2.871232
2007-03-16 08:15:54 51°14.066 2°55.466 16.5885 0.008797 0.048974 -2.871232
2007-03-16 08:15:59 51°14.075 2°55.459 16.596 0.008797 0.048974 -2.871232
2007-03-16 08:16:04 51°14.085 2°55.452 16.5979 0.008797 0.048975 -2.871232
2007-03-16 08:16:09 51°14.094 2°55.445 16.6045 0.008797 0.048975 -2.871232
2007-03-16 08:16:14 51°14.103 2°55.438 16.6032 0.008797 0.048976 -2.871232
2007-03-16 08:16:19 51°14.113 2°55.431 16.6078 0.008797 0.048976 -2.871232
2007-03-16 08:16:24 51°14.123 2°55.423 16.6141 0.008797 0.048977 -2.871232
2007-03-16 08:16:29 51°14.133 2°55.414 16.6131 0.008797 0.048977 -2.871232
2007-03-16 08:16:34 51°14.144 2°55.404 16.5988 0.008797 0.048978 -2.871232
2007-03-16 08:16:39 51°14.156 2°55.394 16.583 0.008797 0.048978 -2.871232
2007-03-16 08:16:44 51°14.167 2°55.383 16.5765 0.008797 0.048978 -2.871232
2007-03-16 08:16:49 51°14.179 2°55.372 16.6139 0.008797 0.048979 -2.871232
2007-03-16 08:16:54 51°14.191 2°55.359 16.6347 0.008797 0.04898 -2.871232
2007-03-16 08:16:59 51°14.203 2°55.345 16.5711 0.008797 0.04898 -2.871232
2007-03-16 08:17:04 51°14.215 2°55.331 16.629 0.008797 0.048981 -2.871232
2007-03-16 08:17:09 51°14.226 2°55.315 16.6049 0.008797 0.048981 -2.871232
2007-03-16 08:17:14 51°14.237 2°55.299 16.5885 0.008797 0.048982 -2.871232
2007-03-16 08:17:19 51°14.249 2°55.281 16.6138 0.008797 0.048982 -2.871232
2007-03-16 08:17:24 51°14.259 2°55.263 16.6081 0.008797 0.048983 -2.871232
2007-03-16 08:17:29 51°14.271 2°55.243 16.5759 0.008797 0.048983 -2.871232
2007-03-16 08:17:34 51°14.282 2°55.223 16.6035 0.008797 0.048982 -2.871232
2007-03-16 08:17:39 51°14.293 2°55.201 16.6257 0.008797 0.048981 -2.871232
2007-03-16 08:17:44 51°14.305 2°55.18 16.6267 0.008797 0.048981 -2.871232
2007-03-16 08:17:49 51°14.316 2°55.158 16.6273 0.008797 0.048981 -2.871232
2007-03-16 08:17:54 51°14.328 2°55.136 16.6328 0.008797 0.048984 -2.871232
2007-03-16 08:17:59 51°14.34 2°55.113 16.6321 0.008797 0.048984 -2.871232
2007-03-16 08:18:04 51°14.352 2°55.091 16.6359 0.008797 0.048987 -2.871232
2007-03-16 08:18:09 51°14.363 2°55.068 16.6527 0.008797 0.048989 -2.871232
2007-03-16 08:18:14 51°14.374 2°55.044 16.6427 0.008797 0.048989 -2.871232
2007-03-16 08:18:19 51°14.385 2°55.021 16.6454 0.008797 0.04899 -2.871232
2007-03-16 08:18:24 51°14.396 2°54.997 16.666 0.008797 0.04899 -2.871232
2007-03-16 08:18:29 51°14.406 2°54.972 16.6736 0.008797 0.048993 -2.871232
2007-03-16 08:18:34 51°14.415 2°54.947 16.675 0.008797 0.048994 -2.871232
2007-03-16 08:18:39 51°14.423 2°54.92 16.6606 0.008797 0.048994 -2.871232
2007-03-16 08:18:44 51°14.431 2°54.894 16.6829 0.008797 0.048994 -2.871232
2007-03-16 08:18:49 51°14.437 2°54.867 16.7022 0.008797 0.048996 -2.871232
2007-03-16 08:18:54 51°14.442 2°54.839 16.6805 0.008797 0.048998 -2.871232
2007-03-16 08:18:59 51°14.445 2°54.81 16.6736 0.008797 0.048999 -2.871232
2007-03-16 08:19:04 51°14.448 2°54.782 16.6695 0.008797 0.048999 -2.871232
2007-03-16 08:19:09 51°14.45 2°54.753 16.6776 0.008797 0.048999 -2.871232
2007-03-16 08:19:14 51°14.452 2°54.725 16.7027 0.008797 0.049002 -2.871232
2007-03-16 08:19:19 51°14.452 2°54.696 16.7014 0.008797 0.049002 -2.871232
2007-03-16 08:19:24 51°14.451 2°54.668 16.6879 0.008797 0.049003 -2.871232
2007-03-16 08:19:29 51°14.449 2°54.64 16.685 0.008797 0.049005 -2.871232
2007-03-16 08:19:34 51°14.446 2°54.611 16.698 0.008797 0.049006 -2.871232
2007-03-16 08:19:39 51°14.442 2°54.584 16.6982 0.008797 0.049007 -2.871232
2007-03-16 08:19:44 51°14.438 2°54.557 16.7086 0.008797 0.049009 -2.871232
2007-03-16 08:19:49 51°14.431 2°54.53 16.7101 0.008797 0.049009 -2.871232
2007-03-16 08:19:54 51°14.424 2°54.504 16.7303 0.008797 0.04901 -2.871232
2007-03-16 08:19:59 51°14.415 2°54.48 16.7122 0.008797 0.049013 -2.871232
2007-03-16 08:20:04 51°14.405 2°54.457 16.7023 0.008797 0.049014 -2.871232
2007-03-16 08:20:09 51°14.395 2°54.434 16.7218 0.008797 0.049014 -2.871232
2007-03-16 08:20:14 51°14.385 2°54.41 16.7241 0.008797 0.049014 -2.871232
2007-03-16 08:20:19 51°14.375 2°54.387 16.7329 0.008797 0.049015 -2.871232
2007-03-16 08:20:24 51°14.366 2°54.363 16.7289 0.008797 0.049016 -2.871232
2007-03-16 08:20:29 51°14.357 2°54.338 16.7313 0.008797 0.049019 -2.871232
2007-03-16 08:20:34 51°14.348 2°54.314 16.7305 0.008797 0.049022 -2.871232
2007-03-16 08:20:39 51°14.34 2°54.289 16.7331 0.008797 0.049024 -2.871232
2007-03-16 08:20:44 51°14.331 2°54.264 16.7355 0.008797 0.049027 -2.871232
2007-03-16 08:20:49 51°14.322 2°54.24 16.7332 0.008797 0.049027 -2.871232
2007-03-16 08:20:54 51°14.312 2°54.215 16.739 0.008797 0.049029 -2.871232
2007-03-16 08:20:59 51°14.303 2°54.191 16.7351 0.008797 0.049031 -2.871232
2007-03-16 08:21:04 51°14.294 2°54.167 16.7433 0.008797 0.049034 -2.871232
2007-03-16 08:21:09 51°14.284 2°54.142 16.7391 0.008797 0.049036 -2.871232
2007-03-16 08:21:14 51°14.275 2°54.118 16.7517 0.008797 0.049039 -2.871232
2007-03-16 08:21:19 51°14.265 2°54.094 16.7439 0.008797 0.049039 -2.871232
2007-03-16 08:21:24 51°14.256 2°54.069 16.753 0.008797 0.049041 -2.871232
2007-03-16 08:21:29 51°14.246 2°54.045 16.7498 0.008797 0.049044 -2.871232
2007-03-16 08:21:34 51°14.237 2°54.021 16.7594 0.008797 0.049047 -2.871232
2007-03-16 08:21:39 51°14.227 2°53.997 16.7582 0.008797 0.04905 -2.871232
2007-03-16 08:21:44 51°14.218 2°53.972 16.7595 0.008797 0.04905 -2.871232
2007-03-16 08:21:49 51°14.209 2°53.948 16.7593 0.008797 0.049053 -2.871232
2007-03-16 08:21:54 51°14.199 2°53.924 16.7638 0.008797 0.049056 -2.871232
2007-03-16 08:21:59 51°14.19 2°53.899 16.7612 0.008797 0.049059 -2.871232
2007-03-16 08:22:04 51°14.181 2°53.875 16.775 0.008797 0.049062 -2.871232
2007-03-16 08:22:09 51°14.171 2°53.85 16.7647 0.008797 0.049065 -2.871232
2007-03-16 08:22:14 51°14.162 2°53.826 16.7754 0.008797 0.049068 -2.871232
2007-03-16 08:22:19 51°14.153 2°53.801 16.7766 0.008797 0.049068 -2.871232
2007-03-16 08:22:24 51°14.144 2°53.777 16.777 0.008797 0.049072 -2.871232
2007-03-16 08:22:29 51°14.134 2°53.753 16.7741 0.008797 0.049075 -2.871232
2007-03-16 08:22:34 51°14.125 2°53.728 16.7823 0.008797 0.049078 -2.871232
2007-03-16 08:22:39 51°14.116 2°53.704 16.7826 0.008797 0.049082 -2.871232
2007-03-16 08:22:44 51°14.106 2°53.679 16.7929 0.008797 0.049085 -2.871232
2007-03-16 08:22:49 51°14.097 2°53.655 16.7888 0.008797 0.049085 -2.871232
2007-03-16 08:22:54 51°14.088 2°53.631 16.7916 0.008797 0.049089 -2.871232
2007-03-16 08:22:59 51°14.078 2°53.606 16.7931 0.008797 0.049092 -2.871232
2007-03-16 08:23:04 51°14.069 2°53.582 16.7993 0.008797 0.049095 -2.871232
2007-03-16 08:23:09 51°14.06 2°53.557 16.7931 0.008797 0.049098 -2.871232
2007-03-16 08:23:14 51°14.051 2°53.533 16.8018 0.008797 0.049101 -2.871232
2007-03-16 08:23:19 51°14.041 2°53.508 16.8019 0.008797 0.049101 -2.871232
2007-03-16 08:23:24 51°14.032 2°53.484 16.8025 0.008797 0.049105 -2.871232
2007-03-16 08:23:29 51°14.023 2°53.459 16.8051 0.008797 0.049109 -2.871232
2007-03-16 08:23:34 51°14.013 2°53.435 16.8161 0.008797 0.049111 -2.871232
2007-03-16 08:23:39 51°14.004 2°53.41 16.8103 0.008797 0.049115 -2.871232
2007-03-16 08:23:44 51°13.995 2°53.386 16.8165 0.008797 0.049118 -2.871232
2007-03-16 08:23:49 51°13.985 2°53.361 16.8132 0.008797 0.049118 -2.871232
2007-03-16 08:23:54 51°13.976 2°53.337 16.8093 0.008797 0.049121 -2.871232
2007-03-16 08:23:59 51°13.966 2°53.313 16.8261 0.008797 0.049125 -2.871232
2007-03-16 08:24:04 51°13.957 2°53.288 16.8216 0.008797 0.049128 -2.871232
2007-03-16 08:24:09 51°13.948 2°53.264 16.8252 0.008797 0.049131 -2.871232
2007-03-16 08:24:14 51°13.939 2°53.239 16.8346 0.008797 0.049135 -2.871232
2007-03-16 08:24:19 51°13.929 2°53.215 16.8337 0.008797 0.049135 -2.871232
2007-03-16 08:24:24 51°13.92 2°53.19 16.8362 0.008797 0.049139 -2.871232
2007-03-16 08:24:29 51°13.911 2°53.166 16.8383 0.008797 0.049142 -2.871232
2007-03-16 08:24:34 51°13.902 2°53.141 16.8333 0.008797 0.049145 -2.871232
2007-03-16 08:24:39 51°13.893 2°53.117 16.8496 0.008797 0.049148 -2.871232
2007-03-16 08:24:44 51°13.883 2°53.092 16.8431 0.008797 0.049148 -2.871232
2007-03-16 08:24:49 51°13.874 2°53.067 16.8431 0.008797 0.049151 -2.871232
2007-03-16 08:24:54 51°13.865 2°53.043 16.8336 0.008797 0.049155 -2.871232
2007-03-16 08:24:59 51°13.856 2°53.018 16.8461 0.008797 0.049157 -2.871232
2007-03-16 08:25:04 51°13.847 2°52.994 16.8575 0.008797 0.049161 -2.871232
2007-03-16 08:25:09 51°13.837 2°52.969 16.849 0.008797 0.049164 -2.871232
2007-03-16 08:25:14 51°13.828 2°52.944 16.869 0.008797 0.049164 -2.871232
2007-03-16 08:25:19 51°13.819 2°52.92 16.8539 0.008797 0.049167 -2.871232
2007-03-16 08:25:24 51°13.81 2°52.895 16.8707 0.008797 0.04917 -2.871232
2007-03-16 08:25:29 51°13.801 2°52.87 16.8541 0.008797 0.049173 -2.871232
2007-03-16 08:25:34 51°13.792 2°52.845 16.8673 0.008797 0.049176 -2.871232
2007-03-16 08:25:39 51°13.782 2°52.821 16.8651 0.008797 0.04918 -2.871232
2007-03-16 08:25:44 51°13.773 2°52.796 16.8698 0.008797 0.049184 -2.871232
2007-03-16 08:25:49 51°13.764 2°52.771 16.8669 0.008797 0.049184 -2.871232
2007-03-16 08:25:54 51°13.755 2°52.746 16.8737 0.008797 0.049187 -2.871232
2007-03-16 08:25:59 51°13.746 2°52.721 16.8763 0.008797 0.04919 -2.871232
2007-03-16 08:26:04 51°13.737 2°52.696 16.8704 0.008797 0.049194 -2.871232
2007-03-16 08:26:09 51°13.728 2°52.671 16.8899 0.008797 0.049198 -2.871232
2007-03-16 08:26:14 51°13.719 2°52.646 16.8812 0.008797 0.049201 -2.871232
2007-03-16 08:26:19 51°13.71 2°52.621 16.896 0.008797 0.049201 -2.871232
2007-03-16 08:26:24 51°13.701 2°52.596 16.8919 0.008797 0.049205 -2.871232
2007-03-16 08:26:29 51°13.692 2°52.571 16.8833 0.008694 0.0487 -2.871232
2007-03-16 08:26:34 51°13.683 2°52.546 16.9027 0.008797 0.049212 -2.871232
2007-03-16 08:26:39 51°13.673 2°52.521 16.8903 0.008797 0.049215 -2.871232
2007-03-16 08:26:44 51°13.665 2°52.496 16.9104 0.008694 0.048711 -2.871232
2007-03-16 08:26:49 51°13.655 2°52.471 16.8896 0.008694 0.048711 -2.871232
2007-03-16 08:26:54 51°13.646 2°52.446 16.8916 0.008694 0.048713 -2.871232
2007-03-16 08:26:59 51°13.637 2°52.421 16.9149 0.008694 0.048716 -2.871232
2007-03-16 08:27:04 51°13.628 2°52.396 16.9041 0.008797 0.049228 -2.871232
2007-03-16 08:27:09 51°13.619 2°52.371 16.9064 0.008797 0.049232 -2.871232
2007-03-16 08:27:14 51°13.609 2°52.346 16.9129 0.008694 0.048727 -2.871232
2007-03-16 08:27:19 51°13.6 2°52.32 16.924 0.008694 0.048727 -2.871232
2007-03-16 08:27:24 51°13.591 2°52.296 16.9154 0.008797 0.049238 -2.871232
2007-03-16 08:27:29 51°13.582 2°52.271 16.9207 0.008694 0.048733 -2.871232
2007-03-16 08:27:34 51°13.573 2°52.246 16.903 0.008694 0.048736 -2.871232
2007-03-16 08:27:39 51°13.563 2°52.221 16.9206 0.008694 0.048739 -2.871232
2007-03-16 08:27:44 51°13.554 2°52.196 16.9141 0.008694 0.048742 -2.871232
2007-03-16 08:27:49 51°13.545 2°52.171 16.9173 0.008694 0.048742 -2.871232
2007-03-16 08:27:54 51°13.536 2°52.146 16.9165 0.008694 0.048746 -2.871232
2007-03-16 08:27:59 51°13.526 2°52.121 16.9135 0.008694 0.048749 -2.871232
2007-03-16 08:28:04 51°13.517 2°52.096 16.9348 0.008694 0.048752 -2.871232
2007-03-16 08:28:09 51°13.507 2°52.071 16.9143 0.008694 0.048756 -2.871232
2007-03-16 08:28:14 51°13.498 2°52.046 16.9371 0.008694 0.048756 -2.871232
2007-03-16 08:28:19 51°13.489 2°52.021 16.9269 0.008694 0.048759 -2.871232
2007-03-16 08:28:24 51°13.48 2°51.996 16.925 0.008694 0.048762 -2.871232
2007-03-16 08:28:29 51°13.471 2°51.971 16.9492 0.008694 0.048765 -2.871232
2007-03-16 08:28:34 51°13.461 2°51.947 16.9366 0.008694 0.04877 -2.871232
2007-03-16 08:28:39 51°13.452 2°51.921 16.9515 0.008694 0.048772 -2.871232
2007-03-16 08:28:44 51°13.443 2°51.896 16.9509 0.008694 0.048776 -2.871232
2007-03-16 08:28:49 51°13.434 2°51.871 16.9494 0.008694 0.048776 -2.871232
2007-03-16 08:28:54 51°13.425 2°51.846 16.9499 0.008694 0.048779 -2.871232
2007-03-16 08:28:59 51°13.415 2°51.821 16.9479 0.008694 0.048782 -2.871232
2007-03-16 08:29:04 51°13.406 2°51.797 16.9513 0.008694 0.048786 -2.871232
2007-03-16 08:29:09 51°13.397 2°51.771 16.9603 0.008694 0.04879 -2.871232
2007-03-16 08:29:14 51°13.387 2°51.747 16.9471 0.008694 0.048792 -2.871232
2007-03-16 08:29:19 51°13.378 2°51.722 16.9644 0.008694 0.048792 -2.871232
2007-03-16 08:29:24 51°13.369 2°51.697 16.9698 0.008694 0.048796 -2.871232
2007-03-16 08:29:29 51°13.359 2°51.672 16.9667 0.008694 0.048799 -2.871232
2007-03-16 08:29:34 51°13.35 2°51.647 16.9502 0.008694 0.048802 -2.871232
2007-03-16 08:29:39 51°13.341 2°51.621 16.9729 0.008694 0.048806 -2.871232
2007-03-16 08:29:44 51°13.332 2°51.597 16.9524 0.008694 0.048809 -2.871232
2007-03-16 08:29:49 51°13.323 2°51.571 16.9857 0.008694 0.048809 -2.871232
2007-03-16 08:29:54 51°13.313 2°51.546 16.9613 0.008694 0.048813 -2.871232
2007-03-16 08:29:59 51°13.304 2°51.521 16.9826 0.008694 0.048815 -2.871232
2007-03-16 08:30:04 51°13.295 2°51.497 16.9746 0.008694 0.048819 -2.871232
2007-03-16 08:30:09 51°13.286 2°51.471 16.9809 0.008694 0.048822 -2.871232
2007-03-16 08:30:14 51°13.276 2°51.446 16.9829 0.008694 0.048822 -2.871232
2007-03-16 08:30:19 51°13.267 2°51.421 16.9831 0.008694 0.048825 -2.871232
2007-03-16 08:30:24 51°13.258 2°51.397 16.9784 0.008694 0.048828 -2.871232
2007-03-16 08:30:29 51°13.248 2°51.372 16.9868 0.008694 0.048831 -2.871232
2007-03-16 08:30:34 51°13.239 2°51.347 16.9874 0.008694 0.048834 -2.871232
2007-03-16 08:30:39 51°13.23 2°51.322 16.984 0.008694 0.048837 -2.871232
2007-03-16 08:30:44 51°13.221 2°51.297 16.9958 0.008694 0.048841 -2.871232
2007-03-16 08:30:49 51°13.212 2°51.273 17.0057 0.008694 0.048841 -2.871232
2007-03-16 08:30:54 51°13.202 2°51.248 16.9883 0.008694 0.048844 -2.871232
2007-03-16 08:30:59 51°13.193 2°51.223 17.0085 0.008694 0.048847 -2.871232
2007-03-16 08:31:05 51°13.182 2°51.194 16.9828 0.008694 0.048849 -2.871232
2007-03-16 08:31:10 51°13.173 2°51.169 17.0084 0.008694 0.048854 -2.871232
2007-03-16 08:31:15 51°13.163 2°51.145 16.9841 0.008694 0.048857 -2.871232
2007-03-16 08:31:19 51°13.156 2°51.125 17.0226 0.008694 0.048857 -2.871232
2007-03-16 08:31:25 51°13.145 2°51.096 16.9937 0.008694 0.04886 -2.871232
2007-03-16 08:31:29 51°13.138 2°51.076 17.0147 0.008694 0.048863 -2.871232
2007-03-16 08:31:35 51°13.127 2°51.046 16.9986 0.008694 0.048866 -2.871232
2007-03-16 08:31:39 51°13.12 2°51.026 17.0184 0.008694 0.04887 -2.871232
2007-03-16 08:31:45 51°13.11 2°50.996 17.0038 0.008694 0.048872 -2.871232
2007-03-16 08:31:49 51°13.104 2°50.976 17.0258 0.008694 0.048872 -2.871232
2007-03-16 08:31:55 51°13.093 2°50.946 17.0264 0.008694 0.048876 -2.871232
2007-03-16 08:32:00 51°13.085 2°50.921 17.0312 0.008694 0.048881 -2.871232
2007-03-16 08:32:05 51°13.077 2°50.896 17.0239 0.008694 0.048885 -2.871232
2007-03-16 08:32:09 51°13.07 2°50.876 17.0316 0.008694 0.048888 -2.871232
2007-03-16 08:32:14 51°13.062 2°50.85 17.0289 0.008694 0.048888 -2.871232
2007-03-16 08:32:20 51°13.052 2°50.82 17.0415 0.008694 0.04889 -2.871232
2007-03-16 08:32:25 51°13.043 2°50.796 17.0179 0.008694 0.048893 -2.871232
2007-03-16 08:32:30 51°13.035 2°50.77 17.0451 0.008694 0.048896 -2.871232
2007-03-16 08:32:35 51°13.026 2°50.745 17.0134 0.008694 0.048899 -2.871232
2007-03-16 08:32:40 51°13.018 2°50.72 17.0528 0.008694 0.048903 -2.871232
2007-03-16 08:32:45 51°13.009 2°50.695 17.0258 0.008694 0.048906 -2.871232
2007-03-16 08:32:50 51°13.001 2°50.67 17.0525 0.008694 0.048906 -2.871232
2007-03-16 08:32:54 51°12.994 2°50.65 17.0561 0.008694 0.048909 -2.871232
2007-03-16 08:33:00 51°12.984 2°50.62 17.0367 0.008694 0.048913 -2.871232
2007-03-16 08:33:04 51°12.977 2°50.6 17.0557 0.008694 0.048915 -2.871232
2007-03-16 08:33:10 51°12.967 2°50.57 17.0515 0.008694 0.048919 -2.871232
2007-03-16 08:33:14 51°12.96 2°50.55 17.0565 0.008694 0.048922 -2.871232
2007-03-16 08:33:20 51°12.95 2°50.52 17.0514 0.008694 0.048922 -2.871232
2007-03-16 08:33:24 51°12.943 2°50.5 17.0579 0.008694 0.048925 -2.871232
2007-03-16 08:33:30 51°12.933 2°50.47 17.0686 0.008694 0.048928 -2.871232
2007-03-16 08:33:35 51°12.924 2°50.445 17.0661 0.008694 0.048932 -2.871232
2007-03-16 08:33:39 51°12.917 2°50.425 17.0512 0.008694 0.048934 -2.871232
2007-03-16 08:33:44 51°12.909 2°50.4 17.0769 0.008694 0.048934 -2.871232
2007-03-16 08:33:49 51°12.9 2°50.375 17.0458 0.008694 0.048938 -2.871232
2007-03-16 08:33:55 51°12.891 2°50.344 17.0795 0.008694 0.048941 -2.871232
2007-03-16 08:33:59 51°12.884 2°50.324 17.0509 0.008694 0.048945 -2.871232
2007-03-16 08:34:05 51°12.874 2°50.294 17.0782 0.008694 0.048948 -2.871232
2007-03-16 08:34:09 51°12.867 2°50.274 17.081 0.008694 0.048951 -2.871232
2007-03-16 08:34:15 51°12.858 2°50.243 17.0869 0.008694 0.048956 -2.871232
2007-03-16 08:34:20 51°12.849 2°50.218 17.0693 0.008694 0.048956 -2.871232
2007-03-16 08:34:25 51°12.841 2°50.193 17.0909 0.008694 0.048958 -2.871232
2007-03-16 08:34:29 51°12.834 2°50.173 17.0912 0.008694 0.048962 -2.871232
2007-03-16 08:34:35 51°12.824 2°50.142 17.0855 0.008694 0.048965 -2.871232
2007-03-16 08:34:40 51°12.815 2°50.117 17.0874 0.008694 0.048968 -2.871232
2007-03-16 08:34:45 51°12.807 2°50.092 17.1016 0.008694 0.048971 -2.871232
2007-03-16 08:34:50 51°12.799 2°50.067 17.0923 0.008694 0.048971 -2.871232
2007-03-16 08:34:55 51°12.79 2°50.041 17.0936 0.008694 0.048973 -2.871232
2007-03-16 08:35:00 51°12.782 2°50.016 17.0954 0.008694 0.048977 -2.871232
2007-03-16 08:35:05 51°12.774 2°49.991 17.1053 0.008694 0.04898 -2.871232
2007-03-16 08:35:10 51°12.765 2°49.965 17.1076 0.008694 0.048983 -2.871232
2007-03-16 08:35:15 51°12.757 2°49.94 17.0923 0.008694 0.048985 -2.871232
2007-03-16 08:35:20 51°12.749 2°49.915 17.1175 0.008694 0.048985 -2.871232
2007-03-16 08:35:25 51°12.74 2°49.89 17.0857 0.008694 0.04899 -2.871232
2007-03-16 08:35:30 51°12.732 2°49.864 17.1174 0.008694 0.048993 -2.871232
2007-03-16 08:35:34 51°12.725 2°49.845 17.1124 0.008694 0.048996 -2.871232
2007-03-16 08:35:40 51°12.715 2°49.814 17.1006 0.008694 0.048999 -2.871232
2007-03-16 08:35:45 51°12.707 2°49.789 17.1222 0.008694 0.049003 -2.871232
2007-03-16 08:35:50 51°12.698 2°49.764 17.093 0.008694 0.049003 -2.871232
2007-03-16 08:35:55 51°12.69 2°49.739 17.129 0.008694 0.049006 -2.871232
2007-03-16 08:36:00 51°12.681 2°49.713 17.125 0.008694 0.04901 -2.871232
2007-03-16 08:36:04 51°12.675 2°49.693 17.1068 0.008694 0.049012 -2.871232
2007-03-16 08:36:10 51°12.665 2°49.663 17.127 0.008694 0.049015 -2.871232
2007-03-16 08:36:15 51°12.657 2°49.638 17.1188 0.008694 0.049018 -2.871232
2007-03-16 08:36:20 51°12.648 2°49.613 17.1279 0.008694 0.049018 -2.871232
2007-03-16 08:36:24 51°12.642 2°49.593 17.1326 0.008694 0.049021 -2.871232
2007-03-16 08:36:30 51°12.632 2°49.562 17.1168 0.008694 0.049024 -2.871232
2007-03-16 08:36:35 51°12.624 2°49.537 17.1366 0.008694 0.049029 -2.871232
2007-03-16 08:36:39 51°12.617 2°49.517 17.1393 0.008694 0.049031 -2.871232
2007-03-16 08:36:45 51°12.607 2°49.487 17.1319 0.008694 0.049034 -2.871232
2007-03-16 08:36:50 51°12.599 2°49.462 17.1371 0.008694 0.049034 -2.871232
2007-03-16 08:36:55 51°12.59 2°49.436 17.1489 0.008694 0.049037 -2.871232
2007-03-16 08:36:59 51°12.584 2°49.416 17.1359 0.008694 0.049041 -2.871232
2007-03-16 08:37:05 51°12.574 2°49.386 17.1554 0.008694 0.049044 -2.871232
2007-03-16 08:37:09 51°12.567 2°49.366 17.1488 0.008694 0.049047 -2.871232
2007-03-16 08:37:15 51°12.557 2°49.336 17.1409 0.008591 0.048537 -2.871232
2007-03-16 08:37:20 51°12.549 2°49.311 17.1554 0.008591 0.048537 -2.871232
2007-03-16 08:37:25 51°12.54 2°49.286 17.1339 0.008591 0.04854 -2.871232
2007-03-16 08:37:29 51°12.534 2°49.265 17.1643 0.008694 0.049056 -2.871232
2007-03-16 08:37:35 51°12.524 2°49.236 17.1534 0.008591 0.048546 -2.871232
2007-03-16 08:37:40 51°12.516 2°49.211 17.143 0.008591 0.04855 -2.871232
2007-03-16 08:37:45 51°12.508 2°49.185 17.1719 0.008591 0.048553 -2.871232
2007-03-16 08:37:50 51°12.499 2°49.16 17.1324 0.008591 0.048553 -2.871232
2007-03-16 08:37:54 51°12.493 2°49.14 17.1767 0.008591 0.048555 -2.871232
2007-03-16 08:38:00 51°12.483 2°49.11 17.1621 0.008591 0.048558 -2.871232
2007-03-16 08:38:05 51°12.475 2°49.085 17.1635 0.008591 0.048561 -2.871232
2007-03-16 08:38:10 51°12.466 2°49.06 17.1671 0.008591 0.048564 -2.871232
2007-03-16 08:38:14 51°12.46 2°49.04 17.1891 0.008591 0.048564 -2.871232
2007-03-16 08:38:20 51°12.45 2°49.01 17.1584 0.008591 0.048567 -2.871232
2007-03-16 08:38:24 51°12.443 2°48.99 17.1897 0.008591 0.048569 -2.871232
2007-03-16 08:38:30 51°12.433 2°48.96 17.1749 0.008591 0.048573 -2.871232
2007-03-16 08:38:35 51°12.425 2°48.935 17.1581 0.008591 0.048576 -2.871232
2007-03-16 08:38:40 51°12.417 2°48.91 17.1832 0.008591 0.048579 -2.871232
2007-03-16 08:38:44 51°12.41 2°48.89 17.1808 0.008591 0.048579 -2.871232
2007-03-16 08:38:50 51°12.4 2°48.859 17.1852 0.008591 0.048583 -2.871232
2007-03-16 08:38:55 51°12.392 2°48.834 17.1897 0.008591 0.048586 -2.871232
2007-03-16 08:38:59 51°12.385 2°48.814 17.1996 0.008591 0.048589 -2.871232
2007-03-16 08:39:04 51°12.377 2°48.789 17.1912 0.008591 0.048592 -2.871232
2007-03-16 08:39:10 51°12.367 2°48.759 17.2007 0.008591 0.048596 -2.871232
2007-03-16 08:39:15 51°12.359 2°48.734 17.1772 0.008591 0.0486 -2.871232
2007-03-16 08:39:20 51°12.35 2°48.709 17.1862 0.008591 0.0486 -2.871232
2007-03-16 08:39:25 51°12.342 2°48.684 17.2104 0.008591 0.048602 -2.871232
2007-03-16 08:39:30 51°12.333 2°48.659 17.2085 0.008591 0.048605 -2.871232
2007-03-16 08:39:35 51°12.325 2°48.634 17.193 0.008591 0.048608 -2.871232
2007-03-16 08:39:39 51°12.319 2°48.614 17.1905 0.008591 0.048611 -2.871232
2007-03-16 08:39:45 51°12.309 2°48.584 17.1829 0.008591 0.048615 -2.871232
2007-03-16 08:39:49 51°12.304 2°48.563 17.1901 0.008591 0.048615 -2.871232
2007-03-16 08:39:55 51°12.296 2°48.532 17.1993 0.008591 0.048616 -2.871232
2007-03-16 08:40:00 51°12.29 2°48.505 17.1878 0.008591 0.048623 -2.871232
2007-03-16 08:40:05 51°12.284 2°48.479 17.2144 0.008591 0.048625 -2.871232
2007-03-16 08:40:10 51°12.278 2°48.452 17.2029 0.008591 0.048628 -2.871232
2007-03-16 08:40:15 51°12.272 2°48.426 17.2204 0.008591 0.048631 -2.871232
2007-03-16 08:40:20 51°12.266 2°48.399 17.2159 0.008591 0.048631 -2.871232
2007-03-16 08:40:25 51°12.261 2°48.372 17.2143 0.008591 0.048634 -2.871232
2007-03-16 08:40:30 51°12.255 2°48.345 17.226 0.008591 0.048636 -2.871232
2007-03-16 08:40:35 51°12.249 2°48.319 17.2296 0.008591 0.048639 -2.871232
2007-03-16 08:40:40 51°12.243 2°48.292 17.2266 0.008591 0.048642 -2.871232
2007-03-16 08:40:45 51°12.238 2°48.265 17.2364 0.008591 0.048645 -2.871232
2007-03-16 08:40:50 51°12.232 2°48.238 17.2248 0.008591 0.048645 -2.871232
2007-03-16 08:40:54 51°12.227 2°48.217 17.2384 0.008591 0.048648 -2.871232
2007-03-16 08:41:00 51°12.221 2°48.185 17.2379 0.008591 0.048651 -2.871232
2007-03-16 08:41:05 51°12.215 2°48.158 17.2404 0.008591 0.048654 -2.871232
2007-03-16 08:41:10 51°12.209 2°48.132 17.2329 0.008591 0.048657 -2.871232
2007-03-16 08:41:15 51°12.203 2°48.105 17.2536 0.008591 0.048657 -2.871232
2007-03-16 08:41:20 51°12.198 2°48.078 17.2438 0.008591 0.048661 -2.871232
2007-03-16 08:41:25 51°12.192 2°48.051 17.2285 0.008591 0.048663 -2.871232
2007-03-16 08:41:30 51°12.186 2°48.025 17.2611 0.008591 0.048666 -2.871232
2007-03-16 08:41:35 51°12.18 2°47.998 17.2568 0.008591 0.04867 -2.871232
2007-03-16 08:41:40 51°12.174 2°47.971 17.2497 0.008591 0.048673 -2.871232
2007-03-16 08:41:44 51°12.17 2°47.95 17.2352 0.008591 0.048673 -2.871232
2007-03-16 08:41:50 51°12.164 2°47.917 17.264 0.008591 0.048676 -2.871232
2007-03-16 08:41:55 51°12.158 2°47.89 17.25 0.008591 0.04868 -2.871232
2007-03-16 08:42:00 51°12.153 2°47.863 17.2711 0.008591 0.048683 -2.871232
2007-03-16 08:42:05 51°12.149 2°47.835 17.2607 0.008591 0.048686 -2.871232
2007-03-16 08:42:10 51°12.144 2°47.808 17.2709 0.008591 0.048689 -2.871232
2007-03-16 08:42:15 51°12.139 2°47.781 17.2812 0.008591 0.048692 -2.871232
2007-03-16 08:42:19 51°12.135 2°47.759 17.2529 0.008591 0.048692 -2.871232
2007-03-16 08:42:25 51°12.129 2°47.726 17.2849 0.008591 0.048694 -2.871232
2007-03-16 08:42:29 51°12.125 2°47.705 17.2507 0.008591 0.048697 -2.871232
2007-03-16 08:42:35 51°12.119 2°47.672 17.2898 0.008591 0.0487 -2.871232
2007-03-16 08:42:39 51°12.115 2°47.65 17.2714 0.008591 0.048703 -2.871232
2007-03-16 08:42:45 51°12.109 2°47.617 17.2802 0.008591 0.048706 -2.871232
2007-03-16 08:42:49 51°12.105 2°47.595 17.2726 0.008591 0.048706 -2.871232
2007-03-16 08:42:55 51°12.099 2°47.563 17.2873 0.008591 0.048708 -2.871232
2007-03-16 08:43:00 51°12.094 2°47.536 17.2664 0.008591 0.048711 -2.871232
2007-03-16 08:43:05 51°12.089 2°47.508 17.293 0.008591 0.048713 -2.871232
2007-03-16 08:43:10 51°12.084 2°47.481 17.2765 0.008591 0.048716 -2.871232
2007-03-16 08:43:15 51°12.079 2°47.454 17.2724 0.008591 0.048719 -2.871232
2007-03-16 08:43:20 51°12.074 2°47.427 17.2729 0.008591 0.048719 -2.871232
2007-03-16 08:43:25 51°12.069 2°47.4 17.2956 0.008591 0.048721 -2.871232
2007-03-16 08:43:30 51°12.064 2°47.372 17.294 0.008591 0.048723 -2.871232
2007-03-16 08:43:34 51°12.06 2°47.351 17.2837 0.008591 0.048725 -2.871232
2007-03-16 08:43:40 51°12.055 2°47.318 17.2581 0.008591 0.048728 -2.871232
2007-03-16 08:43:45 51°12.051 2°47.29 17.2523 0.008591 0.048732 -2.871232
2007-03-16 08:43:50 51°12.049 2°47.262 17.278 0.008591 0.048732 -2.871232
2007-03-16 08:43:54 51°12.047 2°47.239 17.2687 0.008591 0.048735 -2.871232
2007-03-16 08:44:00 51°12.045 2°47.205 17.3006 0.008591 0.048738 -2.871232
2007-03-16 08:44:05 51°12.044 2°47.177 17.295 0.008591 0.048741 -2.871232
2007-03-16 08:44:10 51°12.044 2°47.149 17.3154 0.008591 0.048742 -2.871232
2007-03-16 08:44:15 51°12.043 2°47.12 17.299 0.008591 0.048743 -2.871232
2007-03-16 08:44:20 51°12.043 2°47.092 17.3284 0.008591 0.048743 -2.871232
2007-03-16 08:44:24 51°12.043 2°47.069 17.3263 0.008591 0.048743 -2.871232
2007-03-16 08:44:30 51°12.042 2°47.035 17.3226 0.008591 0.048745 -2.871232
2007-03-16 08:44:35 51°12.041 2°47.006 17.3338 0.008591 0.048746 -2.871232
2007-03-16 08:44:39 51°12.039 2°46.984 17.3499 0.008591 0.048746 -2.871232
2007-03-16 08:44:44 51°12.038 2°46.956 17.3234 0.008591 0.048748 -2.871232
2007-03-16 08:44:49 51°12.036 2°46.927 17.3388 0.008591 0.048748 -2.871232
2007-03-16 08:44:54 51°12.033 2°46.899 17.3309 0.008591 0.04875 -2.871232
2007-03-16 08:44:58 51°12.031 2°46.877 17.3302 0.008591 0.048752 -2.871232
2007-03-16 08:45:02 51°12.029 2°46.854 17.3382 0.008591 0.048753 -2.871232
2007-03-16 08:45:07 51°12.026 2°46.826 17.309 0.008591 0.048755 -2.871232
2007-03-16 08:45:13 51°12.023 2°46.793 17.3339 0.008591 0.048755 -2.871232
2007-03-16 08:45:18 51°12.02 2°46.765 17.3199 0.008591 0.048757 -2.871232
2007-03-16 08:45:23 51°12.017 2°46.737 17.3268 0.008591 0.048759 -2.871232
2007-03-16 08:45:27 51°12.015 2°46.714 15.0911 0.008591 0.048761 -2.871232
2007-03-16 08:45:31 51°12.012 2°46.692 9.956 0.008591 0.048757 -2.871232
2007-03-16 08:45:37 51°12.009 2°46.658 9.7791 0.008591 0.048743 -2.871232
2007-03-16 08:45:41 51°12.006 2°46.636 9.7314 0.008591 0.04872 -2.871232
2007-03-16 08:45:47 51°12.003 2°46.603 9.6815 0.008591 0.04872 -2.871232
2007-03-16 08:45:51 51°12 2°46.58 9.6468 3.529411 25.011177 -2.871232
2007-03-16 08:45:57 51°11.997 2°46.547 9.6254 3.517319 26.281517 -2.871232
2007-03-16 08:46:02 51°11.993 2°46.52 9.6061 3.851268 31.045915 -2.871232
2007-03-16 08:46:07 51°11.99 2°46.492 9.5951 4.000144 33.448782 -2.871232
2007-03-16 08:46:10 51°11.988 2°46.476 9.5845 3.786003 32.194198 -2.871232
2007-03-16 08:46:16 51°11.985 2°46.443 9.5802 3.786003 32.194198 -2.871232
2007-03-16 08:46:21 51°11.981 2°46.416 9.5778 3.737099 32.169611 -2.871232
2007-03-16 08:46:25 51°11.979 2°46.394 9.5746 3.712131 32.196329 -2.871232
2007-03-16 08:46:31 51°11.975 2°46.361 9.5716 3.683123 32.098016 -2.871232
2007-03-16 08:46:35 51°11.973 2°46.339 9.5714 3.663854 32.016273 -2.871232
2007-03-16 08:46:40 51°11.97 2°46.312 9.5679 3.663854 32.016273 -2.871232
2007-03-16 08:46:45 51°11.967 2°46.284 9.567 3.649351 31.95257 -2.871232
2007-03-16 08:46:50 51°11.964 2°46.257 9.5646 3.623764 31.751874 -2.871232
2007-03-16 08:46:55 51°11.961 2°46.23 9.5638 3.631431 31.87013 -2.871232
2007-03-16 08:47:01 51°11.957 2°46.197 9.5605 3.627287 31.851107 -2.871232
2007-03-16 08:47:05 51°11.955 2°46.176 9.5556 3.615582 31.759051 -2.871232
2007-03-16 08:47:11 51°11.952 2°46.143 9.5498 3.606673 31.690956 -2.871232
2007-03-16 08:47:16 51°11.949 2°46.116 9.549 3.606673 31.690956 -2.871232
2007-03-16 08:47:21 51°11.946 2°46.088 9.5434 3.615271 31.790567 -2.871232
2007-03-16 08:47:24 51°11.944 2°46.072 9.5421 3.582435 31.48455 -2.871232
2007-03-16 08:47:30 51°11.94 2°46.04 9.5359 3.556022 31.235707 -2.871232
2007-03-16 08:47:35 51°11.937 2°46.012 9.5354 3.608228 31.753815 -2.871232
2007-03-16 08:47:40 51°11.934 2°45.985 9.5307 3.587822 31.56578 -2.871232
2007-03-16 08:47:45 51°11.931 2°45.958 9.5307 3.587822 31.56578 -2.871232
2007-03-16 08:47:50 51°11.928 2°45.93 9.5332 3.598077 31.675086 -2.871232
2007-03-16 08:47:55 51°11.925 2°45.903 9.532 3.612683 31.832056 -2.871232
2007-03-16 08:48:01 51°11.922 2°45.871 9.5305 3.614444 31.855092 -2.871232
2007-03-16 08:48:05 51°11.919 2°45.849 9.5329 3.611854 31.835512 -2.871232
2007-03-16 08:48:11 51°11.915 2°45.816 9.5314 3.614962 31.875893 -2.871232
2007-03-16 08:48:16 51°11.913 2°45.789 9.5343 3.614962 31.875893 -2.871232
2007-03-16 08:48:21 51°11.91 2°45.762 9.5346 3.611233 31.844311 -2.871232
2007-03-16 08:48:26 51°11.907 2°45.735 9.5374 3.612372 31.858791 -2.871232
2007-03-16 08:48:30 51°11.904 2°45.713 9.5374 3.609161 31.832279 -2.871232
2007-03-16 08:48:35 51°11.901 2°45.686 9.538 3.605846 31.802268 -2.871232
2007-03-16 08:48:39 51°11.898 2°45.664 9.5386 3.605846 31.802268 -2.871232
2007-03-16 08:48:45 51°11.895 2°45.632 9.5382 3.604707 31.794405 -2.871232
2007-03-16 08:48:50 51°11.892 2°45.605 9.541 3.588444 31.635869 -2.871232
2007-03-16 08:48:55 51°11.889 2°45.577 9.5423 3.604707 31.797712 -2.871232
2007-03-16 08:49:01 51°11.885 2°45.545 9.5466 3.60336 31.786164 -2.871232
2007-03-16 08:49:06 51°11.882 2°45.518 9.5505 3.60481 31.800381 -2.871232
2007-03-16 08:49:11 51°11.879 2°45.491 9.5513 3.605328 31.807113 -2.871232
2007-03-16 08:49:16 51°11.876 2°45.464 9.5509 3.605328 31.807113 -2.871232
2007-03-16 08:49:21 51°11.873 2°45.436 9.5539 3.602532 31.781345 -2.871232
2007-03-16 08:49:25 51°11.871 2°45.415 9.5566 3.591552 31.674546 -2.871232
2007-03-16 08:49:31 51°11.867 2°45.382 9.5575 3.596731 31.722831 -2.871232
2007-03-16 08:49:36 51°11.864 2°45.355 9.5594 3.603878 31.792068 -2.871232
2007-03-16 08:49:41 51°11.86 2°45.328 9.5612 3.601185 31.765665 -2.871232
2007-03-16 08:49:46 51°11.857 2°45.301 9.5631 3.601185 31.765665 -2.871232
2007-03-16 08:49:51 51°11.854 2°45.274 9.5667 3.60336 31.786164 -2.871232
2007-03-16 08:49:56 51°11.851 2°45.247 9.5674 3.603049 31.783117 -2.871232
2007-03-16 08:50:01 51°11.848 2°45.22 9.5699 3.601288 31.764203 -2.871232
2007-03-16 08:50:05 51°11.846 2°45.198 9.5718 3.604914 31.80057 -2.871232
2007-03-16 08:50:10 51°11.843 2°45.171 9.5729 3.604914 31.80057 -2.871232
2007-03-16 08:50:15 51°11.84 2°45.144 9.5751 3.597767 31.729684 -2.871232
2007-03-16 08:50:20 51°11.837 2°45.117 9.5747 3.606468 31.813322 -2.871232
2007-03-16 08:50:25 51°11.834 2°45.09 9.5773 3.587201 31.623693 -2.871232
2007-03-16 08:50:30 51°11.831 2°45.063 9.5769 3.60336 31.781206 -2.871232
2007-03-16 08:50:35 51°11.827 2°45.036 9.5781 3.603878 31.78463 -2.871232
2007-03-16 08:50:41 51°11.824 2°45.004 9.58 3.606675 31.810391 -2.871232
2007-03-16 08:50:45 51°11.821 2°44.982 9.5811 3.606675 31.810391 -2.871232
2007-03-16 08:50:50 51°11.818 2°44.955 9.5804 3.594555 31.691624 -2.871232
2007-03-16 08:50:55 51°11.815 2°44.929 9.5821 3.599838 31.743386 -2.871232
2007-03-16 08:51:00 51°11.812 2°44.902 9.5846 3.608022 31.822764 -2.871232
2007-03-16 08:51:05 51°11.808 2°44.875 9.5845 3.588029 31.626877 -2.871232
2007-03-16 08:51:10 51°11.805 2°44.848 9.5851 3.609161 31.833934 -2.871232
2007-03-16 08:51:15 51°11.802 2°44.821 9.5867 3.609161 31.833934 -2.871232
2007-03-16 08:51:20 51°11.799 2°44.795 9.5851 3.605743 31.798773 -2.871232
2007-03-16 08:51:25 51°11.796 2°44.768 9.5876 3.609886 31.840215 -2.871232
2007-03-16 08:51:30 51°11.793 2°44.741 9.5884 3.596005 31.702536 -2.871232
2007-03-16 08:51:35 51°11.79 2°44.714 9.5878 3.619209 31.929138 -2.871232
2007-03-16 08:51:41 51°11.786 2°44.681 9.5869 3.621903 31.95472 -2.871232
2007-03-16 08:51:45 51°11.784 2°44.66 9.5858 3.621903 31.95472 -2.871232
2007-03-16 08:51:51 51°11.78 2°44.627 9.5859 3.618173 31.919809 -2.871232
2007-03-16 08:51:56 51°11.777 2°44.6 9.5853 3.621695 31.954349 -2.871232
2007-03-16 08:52:01 51°11.774 2°44.573 9.5838 3.623353 31.970606 -2.871232
2007-03-16 08:52:05 51°11.771 2°44.552 9.5822 3.61838 31.921841 -2.871232
2007-03-16 08:52:11 51°11.768 2°44.519 9.5811 3.61838 31.921841 -2.871232
2007-03-16 08:52:16 51°11.765 2°44.492 9.5799 3.605639 31.797758 -2.871232
2007-03-16 08:52:21 51°11.762 2°44.465 9.5806 3.623871 31.977348 -2.871232
2007-03-16 08:52:25 51°11.759 2°44.444 9.5764 3.619727 31.937537 -2.871232
2007-03-16 08:52:31 51°11.755 2°44.411 9.5749 3.624389 31.984923 -2.871232
2007-03-16 08:52:36 51°11.752 2°44.384 9.5727 3.615584 31.89939 -2.871232
2007-03-16 08:52:41 51°11.749 2°44.357 9.5733 3.617863 31.92423 -2.871232
2007-03-16 08:52:45 51°11.746 2°44.336 9.5708 3.617863 31.92423 -2.871232
2007-03-16 08:52:51 51°11.742 2°44.303 9.5691 3.620763 31.954342 -2.871232
2007-03-16 08:52:56 51°11.739 2°44.276 9.5689 3.619209 31.940761 -2.871232
2007-03-16 08:53:01 51°11.736 2°44.249 9.5705 3.62356 31.985941 -2.871232
2007-03-16 08:53:05 51°11.733 2°44.228 9.5683 3.623871 31.990654 -2.871232
2007-03-16 08:53:10 51°11.73 2°44.201 9.5676 3.621178 31.967551 -2.871232
2007-03-16 08:53:15 51°11.727 2°44.174 9.5682 3.621178 31.967551 -2.871232
2007-03-16 08:53:19 51°11.724 2°44.152 9.5663 3.616205 31.919592 -2.871232
2007-03-16 08:53:25 51°11.72 2°44.12 9.5631 3.619106 31.950545 -2.871232
2007-03-16 08:53:30 51°11.717 2°44.093 9.5627 3.606675 31.830249 -2.871232
2007-03-16 08:53:36 51°11.713 2°44.06 9.5588 3.619106 31.953869 -2.871232
2007-03-16 08:53:40 51°11.711 2°44.039 9.56 3.619106 31.953869 -2.871232
2007-03-16 08:53:45 51°11.707 2°44.012 9.5586 3.601082 31.77787 -2.871232
2007-03-16 08:53:51 51°11.704 2°43.979 9.5572 3.616309 31.928082 -2.871232
2007-03-16 08:53:56 51°11.701 2°43.952 9.5587 3.613201 31.899247 -2.871232
2007-03-16 08:54:01 51°11.698 2°43.925 9.563 3.608126 31.851102 -2.871232
2007-03-16 08:54:05 51°11.695 2°43.904 9.5625 3.613616 31.906633 -2.871232
2007-03-16 08:54:11 51°11.691 2°43.871 9.5598 3.610301 31.876592 -2.871232
2007-03-16 08:54:16 51°11.688 2°43.844 9.5585 3.610301 31.876592 -2.871232
2007-03-16 08:54:21 51°11.685 2°43.817 9.557 3.608436 31.859124 -2.871232
2007-03-16 08:54:25 51°11.683 2°43.795 9.557 3.61662 31.939442 -2.871232
2007-03-16 08:54:30 51°11.68 2°43.768 9.5546 3.617759 31.951459 -2.871232
2007-03-16 08:54:36 51°11.676 2°43.736 9.5549 3.615066 31.92502 -2.871232
2007-03-16 08:54:41 51°11.673 2°43.709 9.554 3.618692 31.961443 -2.871232
2007-03-16 08:54:45 51°11.67 2°43.687 9.5517 3.618692 31.961443 -2.871232
2007-03-16 08:54:51 51°11.666 2°43.655 9.5491 3.613305 31.909395 -2.871232
2007-03-16 08:54:56 51°11.663 2°43.628 9.5457 3.61548 31.933242 -2.871232
2007-03-16 08:55:01 51°11.66 2°43.601 9.542 3.614548 31.924921 -2.871232
2007-03-16 08:55:05 51°11.658 2°43.579 9.5396 3.615066 31.930836 -2.871232
2007-03-16 08:55:11 51°11.654 2°43.547 9.5351 3.616516 31.946738 -2.871232
2007-03-16 08:55:15 51°11.651 2°43.525 9.532 3.616516 31.946738 -2.871232
2007-03-16 08:55:21 51°11.648 2°43.493 9.5265 3.611233 31.896531 -2.871232
2007-03-16 08:55:25 51°11.645 2°43.471 9.5195 3.614238 31.928518 -2.871232
2007-03-16 08:55:30 51°11.642 2°43.444 9.5148 3.614963 31.938132 -2.871232
2007-03-16 08:55:35 51°11.639 2°43.417 9.5082 3.615481 31.946546 -2.871232
2007-03-16 08:55:40 51°11.636 2°43.39 9.5043 3.614548 31.941548 -2.871232
2007-03-16 08:55:45 51°11.633 2°43.363 9.4994 3.614548 31.941548 -2.871232
2007-03-16 08:55:50 51°11.629 2°43.336 9.4953 3.611337 31.913332 -2.871232
2007-03-16 08:55:56 51°11.626 2°43.304 9.4918 3.611959 31.926089 -2.871232
2007-03-16 08:56:01 51°11.623 2°43.276 9.4879 3.613616 31.947366 -2.871232
2007-03-16 08:56:05 51°11.62 2°43.255 9.4858 3.611648 31.93385 -2.871232
2007-03-16 08:56:11 51°11.616 2°43.222 9.4869 3.611648 31.939677 -2.871232
2007-03-16 08:56:16 51°11.613 2°43.195 9.4883 3.611648 31.939677 -2.871232
2007-03-16 08:56:20 51°11.611 2°43.173 9.4881 3.610716 31.935507 -2.871232
2007-03-16 08:56:25 51°11.609 2°43.146 9.4898 3.606987 31.90384 -2.871232
2007-03-16 08:56:30 51°11.605 2°43.119 9.489 3.608023 31.919017 -2.871232
2007-03-16 08:56:36 51°11.602 2°43.086 9.4904 3.612477 31.966987 -2.871232
2007-03-16 08:56:41 51°11.599 2°43.059 9.4891 3.611649 31.961337 -2.871232
2007-03-16 08:56:45 51°11.597 2°43.037 9.4904 3.611649 31.961337 -2.871232
2007-03-16 08:56:50 51°11.593 2°43.01 9.4904 3.612581 31.971341 -2.871232
2007-03-16 08:56:56 51°11.59 2°42.978 9.4904 3.615274 31.998671 -2.871232
2007-03-16 08:57:01 51°11.587 2°42.951 9.4904 3.612063 31.96708 -2.871232
2007-03-16 08:57:05 51°11.584 2°42.929 9.4904 3.612684 31.973194 -2.871232
2007-03-16 08:57:11 51°11.58 2°42.897 9.4914 3.606573 31.913912 -2.871232
2007-03-16 08:57:16 51°11.577 2°42.869 9.4912 3.606573 31.913912 -2.871232
2007-03-16 08:57:21 51°11.574 2°42.843 9.4922 3.611131 31.958743 -2.871232
2007-03-16 08:57:25 51°11.572 2°42.821 9.494 3.610509 31.952629 -2.871232
2007-03-16 08:57:30 51°11.569 2°42.794 9.4974 3.612477 31.972824 -2.871232
2007-03-16 08:57:36 51°11.565 2°42.762 9.4973 3.612684 31.974028 -2.871232
2007-03-16 08:57:41 51°11.562 2°42.735 9.4995 3.614963 31.997283 -2.871232
2007-03-16 08:57:45 51°11.56 2°42.713 9.5002 3.614963 31.997283 -2.871232
2007-03-16 08:57:50 51°11.556 2°42.686 9.5015 3.614238 31.990149 -2.871232
2007-03-16 08:57:56 51°11.553 2°42.654 9.5028 3.608334 31.932065 -2.871232
2007-03-16 08:58:01 51°11.55 2°42.627 9.5021 3.610716 31.953833 -2.871232
2007-03-16 08:58:05 51°11.548 2°42.606 9.502 3.60937 31.938921 -2.871232
2007-03-16 08:58:10 51°11.545 2°42.579 9.5013 3.608127 31.925863 -2.871232
2007-03-16 08:58:16 51°11.541 2°42.546 9.5034 3.608127 31.925863 -2.871232
2007-03-16 08:58:21 51°11.538 2°42.519 9.5029 3.614135 31.983289 -2.871232
2007-03-16 08:58:25 51°11.535 2°42.498 9.5037 3.614549 31.986531 -2.871232
2007-03-16 08:58:30 51°11.532 2°42.471 9.5033 3.614963 31.989772 -2.871232
2007-03-16 08:58:35 51°11.528 2°42.445 9.5039 3.619418 32.033591 -2.871232
2007-03-16 08:58:41 51°11.522 2°42.413 9.5045 3.611441 31.955131 -2.871232
2007-03-16 08:58:45 51°11.519 2°42.392 9.5045 3.611441 31.955131 -2.871232
2007-03-16 08:58:50 51°11.513 2°42.366 9.5073 3.619211 32.031553 -2.871232
2007-03-16 08:58:55 51°11.509 2°42.339 9.5092 3.6189 32.028496 -2.871232
2007-03-16 08:59:01 51°11.503 2°42.308 9.5102 3.610509 31.945962 -2.871232
2007-03-16 08:59:05 51°11.499 2°42.287 9.5085 3.615067 31.990791 -2.871232
2007-03-16 08:59:10 51°11.494 2°42.261 9.5095 3.615067 31.990791 -2.871232
2007-03-16 08:59:16 51°11.488 2°42.229 9.5103 3.612374 31.9643 -2.871232
2007-03-16 08:59:21 51°11.483 2°42.203 9.5105 3.611959 31.959392 -2.871232
2007-03-16 08:59:25 51°11.479 2°42.181 9.5117 3.615896 31.997274 -2.871232
2007-03-16 08:59:30 51°11.474 2°42.155 9.5127 3.61372 31.97421 -2.871232
2007-03-16 08:59:35 51°11.469 2°42.129 9.5111 3.610509 31.941797 -2.871232
2007-03-16 08:59:41 51°11.463 2°42.097 9.5139 3.605433 31.891892 -2.871232
2007-03-16 08:59:45 51°11.459 2°42.076 9.5144 3.605433 31.891892 -2.871232
2007-03-16 08:59:50 51°11.454 2°42.05 9.5129 3.61372 31.973376 -2.871232
2007-03-16 08:59:56 51°11.448 2°42.018 9.5125 3.614445 31.979674 -2.871232
2007-03-16 09:00:00 51°11.444 2°41.997 9.515 3.600047 31.838113 -2.871232
2007-03-16 09:00:05 51°11.439 2°41.97 9.5142 3.603465 31.870882 -2.871232
2007-03-16 09:00:10 51°11.434 2°41.944 9.5187 3.621075 32.044048 -2.871232
2007-03-16 09:00:15 51°11.429 2°41.917 9.5154 3.621075 32.044048 -2.871232
2007-03-16 09:00:20 51°11.425 2°41.891 9.5177 3.621697 32.049327 -2.871232
2007-03-16 09:00:25 51°11.42 2°41.864 9.5175 3.62035 32.03608 -2.871232
2007-03-16 09:00:30 51°11.415 2°41.838 9.5172 3.6189 32.021815 -2.871232
2007-03-16 09:00:35 51°11.41 2°41.811 9.5162 3.604086 31.875329 -2.871232
2007-03-16 09:00:40 51°11.405 2°41.785 9.515 3.624597 32.076189 -2.871232
2007-03-16 09:00:45 51°11.4 2°41.759 9.516 3.624597 32.076189 -2.871232
2007-03-16 09:00:50 51°11.395 2°41.732 9.5205 3.62294 32.059884 -2.871232
2007-03-16 09:00:55 51°11.391 2°41.706 9.5274 3.623354 32.06396 -2.871232
2007-03-16 09:01:01 51°11.385 2°41.674 9.5331 3.617242 32.003009 -2.871232
2007-03-16 09:01:05 51°11.381 2°41.653 9.5348 3.511075 30.961325 -2.871232
2007-03-16 09:01:10 51°11.376 2°41.627 9.5377 3.511075 30.961325 -2.871232
2007-03-16 09:01:15 51°11.371 2°41.6 9.5427 3.520085 31.051163 -2.871232
2007-03-16 09:01:21 51°11.365 2°41.569 9.5474 3.502583 30.879015 -2.871232
2007-03-16 09:01:25 51°11.361 2°41.548 9.5452 3.638582 32.212134 -2.871232
2007-03-16 09:01:30 51°11.357 2°41.522 9.5483 3.641069 32.232407 -2.871232
2007-03-16 09:01:35 51°11.352 2°41.496 9.5509 3.64283 32.244698 -2.871232
2007-03-16 09:01:41 51°11.346 2°41.465 9.553 3.64428 32.25561 -2.871232
2007-03-16 09:01:45 51°11.342 2°41.444 9.5575 3.64428 32.25561 -2.871232
2007-03-16 09:01:50 51°11.337 2°41.417 9.5569 3.645109 32.260404 -2.871232
2007-03-16 09:01:55 51°11.332 2°41.391 9.5586 3.645523 32.261119 -2.871232
2007-03-16 09:02:00 51°11.327 2°41.365 9.5611 3.64573 32.260636 -2.871232
2007-03-16 09:02:05 51°11.322 2°41.339 9.5611 3.646041 32.262012 -2.871232
2007-03-16 09:02:11 51°11.317 2°41.308 9.5635 3.646041 32.259491 -2.871232
2007-03-16 09:02:15 51°11.313 2°41.287 9.562 3.646041 32.259491 -2.871232
2007-03-16 09:02:19 51°11.309 2°41.267 9.5611 3.646041 32.256129 -2.871232
2007-03-16 09:02:25 51°11.303 2°41.235 9.5587 3.646352 32.257506 -2.871232
2007-03-16 09:02:30 51°11.299 2°41.209 9.5552 3.646455 32.256845 -2.871232
2007-03-16 09:02:35 51°11.294 2°41.183 9.5523 3.646662 32.257202 -2.871232
2007-03-16 09:02:39 51°11.29 2°41.162 9.5527 3.646559 32.255343 -2.871232
2007-03-16 09:02:45 51°11.284 2°41.131 9.5511 3.646559 32.255343 -2.871232
2007-03-16 09:02:50 51°11.28 2°41.105 9.5527 3.646766 32.256541 -2.871232
2007-03-16 09:02:55 51°11.275 2°41.078 9.5575 3.64687 32.25756 -2.871232
2007-03-16 09:03:01 51°11.269 2°41.047 9.5633 3.64687 32.2584 -2.871232
2007-03-16 09:03:05 51°11.265 2°41.026 9.5687 3.647077 32.262119 -2.871232
2007-03-16 09:03:10 51°11.261 2°41 9.5736 3.647077 32.26464 -2.871232
2007-03-16 09:03:15 51°11.256 2°40.974 9.5741 3.647077 32.26464 -2.871232
2007-03-16 09:03:21 51°11.25 2°40.943 9.5772 3.644901 32.244919 -2.871232
2007-03-16 09:03:25 51°11.247 2°40.922 9.5793 3.64687 32.264283 -2.871232
2007-03-16 09:03:30 51°11.242 2°40.896 9.5791 3.647077 32.26464 -2.871232
2007-03-16 09:03:35 51°11.237 2°40.869 9.5776 3.64718 32.260617 -2.871232
2007-03-16 09:03:41 51°11.232 2°40.838 9.5788 3.647491 32.259473 -2.871232
2007-03-16 09:03:45 51°11.228 2°40.817 9.5783 3.647491 32.259473 -2.871232
2007-03-16 09:03:50 51°11.224 2°40.791 9.5817 3.647595 32.257132 -2.871232
2007-03-16 09:03:55 51°11.219 2°40.765 9.5799 3.647905 32.257668 -2.871232
2007-03-16 09:04:01 51°11.214 2°40.733 9.5818 3.64832 32.259223 -2.871232
2007-03-16 09:04:05 51°11.21 2°40.712 9.5789 3.647595 32.250414 -2.871232
2007-03-16 09:04:10 51°11.205 2°40.686 9.5781 3.64832 32.257544 -2.871232
2007-03-16 09:04:15 51°11.201 2°40.66 9.5776 3.64832 32.257544 -2.871232
2007-03-16 09:04:20 51°11.196 2°40.634 9.5782 3.648734 32.261618 -2.871232
2007-03-16 09:04:25 51°11.192 2°40.608 9.5801 3.648734 32.260778 -2.871232
2007-03-16 09:04:30 51°11.187 2°40.581 9.578 3.648941 32.261976 -2.871232
2007-03-16 09:04:35 51°11.183 2°40.555 9.5781 3.648734 32.259939 -2.871232
2007-03-16 09:04:40 51°11.179 2°40.529 9.5769 3.649149 32.264853 -2.871232
2007-03-16 09:04:45 51°11.174 2°40.503 9.5774 3.649149 32.264853 -2.871232
2007-03-16 09:04:50 51°11.169 2°40.477 9.5769 3.649149 32.265692 -2.871232
2007-03-16 09:04:55 51°11.164 2°40.451 9.5784 3.649356 32.26773 -2.871232
2007-03-16 09:05:00 51°11.158 2°40.426 9.5776 3.649356 32.26773 -2.871232
2007-03-16 09:05:05 51°11.153 2°40.401 9.5768 3.649356 32.26857 -2.871232
2007-03-16 09:05:10 51°11.147 2°40.375 9.5765 3.649459 32.269588 -2.871232
2007-03-16 09:05:15 51°11.141 2°40.35 9.5739 3.649459 32.269588 -2.871232
2007-03-16 09:05:19 51°11.136 2°40.33 9.573 3.649459 32.270428 -2.871232
2007-03-16 09:05:25 51°11.128 2°40.299 9.5709 3.649459 32.271269 -2.871232
2007-03-16 09:05:30 51°11.122 2°40.274 9.5685 3.649563 32.271447 -2.871232
2007-03-16 09:05:35 51°11.116 2°40.249 9.5686 3.649563 32.271447 -2.871232
2007-03-16 09:05:40 51°11.11 2°40.224 9.5675 3.649667 32.273306 -2.871232
2007-03-16 09:05:45 51°11.104 2°40.198 9.5672 3.649667 32.273306 -2.871232
2007-03-16 09:05:50 51°11.098 2°40.173 9.5668 3.649563 32.273127 -2.871232
2007-03-16 09:05:55 51°11.092 2°40.148 9.567 3.649667 32.275827 -2.871232
2007-03-16 09:06:00 51°11.086 2°40.122 9.5681 3.649563 32.276489 -2.871232
2007-03-16 09:06:05 51°11.08 2°40.097 9.569 3.649459 32.27631 -2.871232
2007-03-16 09:06:10 51°11.074 2°40.071 9.5679 3.649459 32.277991 -2.871232
2007-03-16 09:06:15 51°11.068 2°40.046 9.5703 3.649459 32.277991 -2.871232
2007-03-16 09:06:20 51°11.061 2°40.022 9.5697 3.649356 32.277813 -2.871232
2007-03-16 09:06:25 51°11.052 2°39.998 9.5688 3.649252 32.277635 -2.871232
2007-03-16 09:06:30 51°11.044 2°39.974 9.5721 3.649252 32.277635 -2.871232
2007-03-16 09:06:35 51°11.035 2°39.952 9.5712 3.64946 32.279672 -2.871232
2007-03-16 09:06:40 51°11.026 2°39.929 9.5713 3.64946 32.279672 -2.871232
2007-03-16 09:06:45 51°11.015 2°39.909 9.5745 3.64946 32.279672 -2.871232
2007-03-16 09:06:50 51°11.004 2°39.889 9.5767 3.649356 32.279494 -2.871232
2007-03-16 09:06:56 51°10.989 2°39.866 9.5758 3.649356 32.278653 -2.871232
2007-03-16 09:06:59 51°10.982 2°39.854 9.5772 3.649563 32.281532 -2.871232
2007-03-16 09:07:05 51°10.967 2°39.832 9.579 3.649563 32.282373 -2.871232
2007-03-16 09:07:10 51°10.955 2°39.813 9.5806 3.649667 32.282551 -2.871232
2007-03-16 09:07:15 51°10.942 2°39.795 9.5807 3.649667 32.282551 -2.871232
2007-03-16 09:07:21 51°10.927 2°39.774 9.5794 3.64977 32.281889 -2.871232
2007-03-16 09:07:25 51°10.916 2°39.76 9.583 3.649874 32.281226 -2.871232
2007-03-16 09:07:30 51°10.903 2°39.742 9.5843 3.649977 32.281405 -2.871232
2007-03-16 09:07:36 51°10.887 2°39.722 9.5838 3.650081 32.280742 -2.871232
2007-03-16 09:07:41 51°10.874 2°39.704 9.586 3.650288 32.281099 -2.871232
2007-03-16 09:07:46 51°10.86 2°39.688 9.5862 3.650288 32.281099 -2.871232
2007-03-16 09:07:50 51°10.849 2°39.674 9.5883 3.650288 32.280259 -2.871232
2007-03-16 09:07:55 51°10.836 2°39.657 9.5883 3.650288 32.279418 -2.871232
2007-03-16 09:08:01 51°10.82 2°39.637 9.59 3.650288 32.278578 -2.871232
2007-03-16 09:08:06 51°10.806 2°39.62 9.5893 3.650599 32.279953 -2.871232
2007-03-16 09:08:11 51°10.793 2°39.603 9.5909 3.650703 32.280132 -2.871232
2007-03-16 09:08:16 51°10.779 2°39.586 9.5911 3.650703 32.280132 -2.871232
2007-03-16 09:08:21 51°10.766 2°39.569 9.5921 3.650806 32.28031 -2.871232
2007-03-16 09:08:26 51°10.752 2°39.552 9.5925 3.65091 32.279648 -2.871232
2007-03-16 09:08:31 51°10.739 2°39.535 9.5923 3.650806 32.277789 -2.871232
2007-03-16 09:08:36 51°10.725 2°39.518 9.5942 3.649563 32.264727 -2.871232
2007-03-16 09:08:41 51°10.712 2°39.5 9.5948 3.650184 32.269998 -2.871232
2007-03-16 09:08:46 51°10.699 2°39.483 9.5951 3.650184 32.269998 -2.871232
2007-03-16 09:08:51 51°10.685 2°39.466 9.5964 3.651117 32.278324 -2.871232
2007-03-16 09:08:56 51°10.672 2°39.448 9.5959 3.651324 32.279521 -2.871232
2007-03-16 09:09:01 51°10.659 2°39.431 9.5967 3.651635 32.281736 -2.871232
2007-03-16 09:09:06 51°10.645 2°39.414 9.5986 3.651324 32.277841 -2.871232
2007-03-16 09:09:11 51°10.632 2°39.396 9.5944 3.651738 32.281915 -2.871232
2007-03-16 09:09:16 51°10.618 2°39.379 9.5972 3.651738 32.281915 -2.871232
2007-03-16 09:09:20 51°10.608 2°39.365 9.5987 3.651946 32.283951 -2.871232
2007-03-16 09:09:26 51°10.592 2°39.344 9.6005 3.651842 32.284613 -2.871232
2007-03-16 09:09:31 51°10.579 2°39.326 9.6007 3.651531 32.283238 -2.871232
2007-03-16 09:09:36 51°10.565 2°39.308 9.6005 3.651738 32.283595 -2.871232
2007-03-16 09:09:40 51°10.555 2°39.294 9.6001 3.651842 32.282933 -2.871232
2007-03-16 09:09:46 51°10.539 2°39.273 9.5985 3.651842 32.282933 -2.871232
2007-03-16 09:09:51 51°10.525 2°39.256 9.5952 3.651531 32.279878 -2.871232
2007-03-16 09:09:56 51°10.512 2°39.238 9.5966 3.651738 32.280234 -2.871232
2007-03-16 09:10:01 51°10.499 2°39.221 9.5956 3.651531 32.277358 -2.871232
2007-03-16 09:10:06 51°10.485 2°39.203 9.5953 3.65122 32.274303 -2.871232
2007-03-16 09:10:11 51°10.472 2°39.186 9.5941 3.65122 32.274303 -2.871232
2007-03-16 09:10:16 51°10.458 2°39.168 9.5931 3.651013 32.271426 -2.871232
2007-03-16 09:10:21 51°10.445 2°39.151 9.5941 3.650806 32.27023 -2.871232
2007-03-16 09:10:26 51°10.432 2°39.133 9.5917 3.650599 32.269873 -2.871232
2007-03-16 09:10:31 51°10.419 2°39.115 9.5929 3.650392 32.269515 -2.871232
2007-03-16 09:10:36 51°10.405 2°39.098 9.5959 3.650081 32.26646 -2.871232
2007-03-16 09:10:41 51°10.392 2°39.08 9.5925 3.649977 32.265442 -2.871232
2007-03-16 09:10:46 51°10.379 2°39.062 9.5926 3.649977 32.265442 -2.871232
2007-03-16 09:10:51 51°10.365 2°39.044 9.5903 3.64977 32.265085 -2.871232
2007-03-16 09:10:56 51°10.352 2°39.027 9.5881 3.649666 32.264066 -2.871232
2007-03-16 09:11:01 51°10.339 2°39.009 9.5871 3.649356 32.261851 -2.871232
2007-03-16 09:11:06 51°10.325 2°38.991 9.5847 3.649148 32.259814 -2.871232
2007-03-16 09:11:11 51°10.312 2°38.973 9.5855 3.649252 32.261672 -2.871232
2007-03-16 09:11:16 51°10.299 2°38.956 9.5875 3.649252 32.261672 -2.871232
2007-03-16 09:11:21 51°10.285 2°38.939 9.5881 3.649045 32.260475 -2.871232
2007-03-16 09:11:26 51°10.272 2°38.921 9.5892 3.649045 32.260475 -2.871232
2007-03-16 09:11:31 51°10.258 2°38.903 9.591 3.648734 32.259939 -2.871232
2007-03-16 09:11:36 51°10.245 2°38.885 9.5907 3.648631 32.25976 -2.871232
2007-03-16 09:11:41 51°10.232 2°38.867 9.5917 3.648423 32.259402 -2.871232
2007-03-16 09:11:46 51°10.219 2°38.847 9.5919 3.648423 32.259402 -2.871232
2007-03-16 09:11:51 51°10.206 2°38.829 9.5929 3.648423 32.259402 -2.871232
2007-03-16 09:11:56 51°10.194 2°38.81 9.5926 3.648113 32.255507 -2.871232
2007-03-16 09:12:01 51°10.181 2°38.791 9.5936 3.648113 32.254667 -2.871232
2007-03-16 09:12:06 51°10.168 2°38.772 9.5926 3.648009 32.252809 -2.871232
2007-03-16 09:12:11 51°10.155 2°38.754 9.5909 3.647802 32.249933 -2.871232
2007-03-16 09:12:16 51°10.142 2°38.735 9.5894 3.647802 32.249933 -2.871232
2007-03-16 09:12:21 51°10.129 2°38.716 9.5901 3.646869 32.239928 -2.871232
2007-03-16 09:12:26 51°10.116 2°38.697 9.5901 3.646869 32.239928 -2.871232
2007-03-16 09:12:31 51°10.103 2°38.679 9.5922 3.64832 32.254185 -2.871232
2007-03-16 09:12:36 51°10.09 2°38.661 9.5915 3.648216 32.253167 -2.871232
2007-03-16 09:12:41 51°10.077 2°38.641 9.5944 3.64832 32.254185 -2.871232
2007-03-16 09:12:46 51°10.064 2°38.623 9.5949 3.64832 32.254185 -2.871232
2007-03-16 09:12:51 51°10.051 2°38.604 9.6037 3.648216 32.254006 -2.871232
2007-03-16 09:12:56 51°10.038 2°38.586 9.6119 3.64832 32.256704 -2.871232
2007-03-16 09:13:01 51°10.025 2°38.568 9.6148 3.64832 32.255864 -2.871232
2007-03-16 09:13:06 51°10.012 2°38.55 9.6158 3.648216 32.254006 -2.871232
2007-03-16 09:13:11 51°9.999 2°38.531 9.6185 3.648423 32.256043 -2.871232
2007-03-16 09:13:16 51°9.986 2°38.513 9.6234 3.648423 32.256043 -2.871232
2007-03-16 09:13:21 51°9.973 2°38.495 9.6245 3.648527 32.255383 -2.871232
2007-03-16 09:13:26 51°9.96 2°38.477 9.6241 3.648838 32.25424 -2.871232
2007-03-16 09:13:31 51°9.947 2°38.459 9.6217 3.649252 32.253277 -2.871232
2007-03-16 09:13:36 51°9.933 2°38.442 9.6228 3.649563 32.251297 -2.871232
2007-03-16 09:13:41 51°9.92 2°38.423 9.6246 3.649563 32.251297 -2.871232
2007-03-16 09:13:46 51°9.907 2°38.405 9.6205 3.649563 32.247941 -2.871232
2007-03-16 09:13:51 51°9.894 2°38.387 9.6184 3.649563 32.244585 -2.871232
2007-03-16 09:13:56 51°9.881 2°38.369 9.6174 3.649355 32.240034 -2.871232
2007-03-16 09:14:00 51°9.871 2°38.354 9.6144 3.649252 32.238178 -2.871232
2007-03-16 09:14:06 51°9.855 2°38.333 9.6141 3.648941 32.235125 -2.871232
2007-03-16 09:14:11 51°9.842 2°38.314 9.611 3.648941 32.234287 -2.871232
2007-03-16 09:14:16 51°9.829 2°38.296 9.6111 3.648941 32.234287 -2.871232
2007-03-16 09:14:21 51°9.816 2°38.278 9.6102 3.648941 32.235125 -2.871232
2007-03-16 09:14:25 51°9.806 2°38.264 9.6105 3.64863 32.23291 -2.871232
2007-03-16 09:14:31 51°9.79 2°38.242 9.607 3.64863 32.234587 -2.871232
2007-03-16 09:14:36 51°9.777 2°38.224 9.6048 3.648319 32.234049 -2.871232
2007-03-16 09:14:41 51°9.764 2°38.206 9.6049 3.647905 32.231655 -2.871232
2007-03-16 09:14:45 51°9.754 2°38.191 9.6041 3.647905 32.231655 -2.871232
2007-03-16 09:14:51 51°9.738 2°38.17 9.6026 3.647387 32.228242 -2.871232
2007-03-16 09:14:56 51°9.725 2°38.152 9.5981 3.646973 32.225848 -2.871232
2007-03-16 09:15:01 51°9.711 2°38.134 9.5969 3.646869 32.225668 -2.871232
2007-03-16 09:15:06 51°9.698 2°38.116 9.5954 3.646455 32.223273 -2.871232
2007-03-16 09:15:11 51°9.685 2°38.098 9.5898 3.645937 32.219022 -2.871232
2007-03-16 09:15:16 51°9.672 2°38.08 9.587 3.645937 32.219022 -2.871232
2007-03-16 09:15:21 51°9.659 2°38.062 9.586 3.64573 32.219501 -2.871232
2007-03-16 09:15:26 51°9.646 2°38.044 9.5815 3.645315 32.217105 -2.871232
2007-03-16 09:15:31 51°9.633 2°38.026 9.5823 3.64459 32.211655 -2.871232
2007-03-16 09:15:36 51°9.62 2°38.009 9.5824 3.643347 32.201115 -2.871232
2007-03-16 09:15:41 51°9.607 2°37.99 9.5791 3.641897 32.190213 -2.871232
2007-03-16 09:15:45 51°9.597 2°37.976 9.5766 3.641897 32.190213 -2.871232
2007-03-16 09:15:51 51°9.581 2°37.955 9.5763 3.640861 32.182545 -2.871232
2007-03-16 09:15:56 51°9.568 2°37.937 9.5771 3.639514 32.172659 -2.871232
2007-03-16 09:16:00 51°9.558 2°37.922 9.5753 3.639411 32.174154 -2.871232
2007-03-16 09:16:06 51°9.542 2°37.901 9.578 3.638478 32.167502 -2.871232
2007-03-16 09:16:11 51°9.529 2°37.883 9.5775 3.638064 32.165104 -2.871232
2007-03-16 09:16:16 51°9.517 2°37.864 9.5751 3.638064 32.165104 -2.871232
2007-03-16 09:16:21 51°9.504 2°37.846 9.5763 3.637649 32.162705 -2.871232
2007-03-16 09:16:26 51°9.491 2°37.827 9.5727 3.637235 32.159469 -2.871232
2007-03-16 09:16:31 51°9.479 2°37.809 9.5742 3.636614 32.155034 -2.871232
2007-03-16 09:16:36 51°9.466 2°37.79 9.575 3.636199 32.15096 -2.871232
2007-03-16 09:16:41 51°9.454 2°37.77 9.5734 3.636406 32.152997 -2.871232
2007-03-16 09:16:46 51°9.443 2°37.75 9.5748 3.636406 32.152997 -2.871232
2007-03-16 09:16:51 51°9.432 2°37.731 9.5716 3.636614 32.155034 -2.871232
2007-03-16 09:16:56 51°9.421 2°37.712 9.5699 3.636614 32.155871 -2.871232
2007-03-16 09:17:01 51°9.411 2°37.695 9.5729 3.636614 32.156708 -2.871232
2007-03-16 09:17:06 51°9.403 2°37.678 9.5724 3.635992 32.150598 -2.871232
2007-03-16 09:17:11 51°9.394 2°37.663 9.5739 3.635785 32.148561 -2.871232
2007-03-16 09:17:16 51°9.387 2°37.649 9.5697 3.635785 32.148561 -2.871232
2007-03-16 09:17:21 51°9.38 2°37.635 9.5702 3.635992 32.150598 -2.871232
2007-03-16 09:17:26 51°9.373 2°37.622 9.569 3.635888 32.150417 -2.871232
2007-03-16 09:17:31 51°9.367 2°37.61 9.5674 3.63537 32.146162 -2.871232
2007-03-16 09:17:36 51°9.361 2°37.599 9.5685 3.634542 32.138014 -2.871232
2007-03-16 09:17:41 51°9.355 2°37.587 9.5668 3.634231 32.134959 -2.871232
2007-03-16 09:17:46 51°9.35 2°37.577 9.5689 3.634231 32.134959 -2.871232
2007-03-16 09:17:51 51°9.345 2°37.567 9.5708 3.63392 32.13274 -2.871232
2007-03-16 09:17:56 51°9.339 2°37.557 9.5729 3.633195 32.126448 -2.871232
2007-03-16 09:18:01 51°9.334 2°37.548 9.5719 3.633299 32.12914 -2.871232
2007-03-16 09:18:06 51°9.329 2°37.539 9.5738 3.633091 32.128777 -2.871232
2007-03-16 09:18:11 51°9.324 2°37.531 9.5734 3.631745 32.115537 -2.871232
2007-03-16 09:18:16 51°9.319 2°37.523 9.5754 3.631745 32.115537 -2.871232
2007-03-16 09:18:21 51°9.315 2°37.515 9.5767 3.630191 32.100261 -2.871232
2007-03-16 09:18:26 51°9.309 2°37.508 9.5785 3.629051 32.088223 -2.871232
2007-03-16 09:18:31 51°9.304 2°37.5 9.5781 3.628326 32.080259 -2.871232
2007-03-16 09:18:36 51°9.3 2°37.493 9.5765 3.628015 32.077204 -2.871232
2007-03-16 09:18:40 51°9.296 2°37.488 9.5756 3.627187 32.068224 -2.871232
2007-03-16 09:18:46 51°9.291 2°37.48 9.5769 3.627187 32.068224 -2.871232
2007-03-16 09:18:51 51°9.286 2°37.473 9.5767 3.626151 32.056372 -2.871232
2007-03-16 09:18:56 51°9.282 2°37.467 9.579 3.62584 32.052483 -2.871232
2007-03-16 09:19:01 51°9.278 2°37.461 9.5777 3.62439 32.037397 -2.871232
2007-03-16 09:19:06 51°9.274 2°37.454 9.5774 3.625011 32.043505 -2.871232
2007-03-16 09:19:11 51°9.27 2°37.448 9.58 3.625736 32.049796 -2.871232
2007-03-16 09:19:16 51°9.266 2°37.442 9.5754 3.625736 32.049796 -2.871232
2007-03-16 09:19:21 51°9.262 2°37.435 9.5788 3.625218 32.044706 -2.871232
2007-03-16 09:19:26 51°9.259 2°37.429 9.5792 3.625322 32.046559 -2.871232
2007-03-16 09:19:31 51°9.255 2°37.422 9.5797 3.625529 32.046926 -2.871232
2007-03-16 09:19:36 51°9.252 2°37.416 9.5795 3.626047 32.052015 -2.871232
2007-03-16 09:19:41 51°9.249 2°37.409 9.581 3.626772 32.059141 -2.871232
2007-03-16 09:19:46 51°9.247 2°37.403 9.5834 3.626772 32.059141 -2.871232
2007-03-16 09:19:51 51°9.244 2°37.396 9.5829 3.62729 32.065066 -2.871232
2007-03-16 09:19:56 51°9.242 2°37.389 9.5829 3.625322 32.04489 -2.871232
2007-03-16 09:20:01 51°9.239 2°37.382 9.5812 3.624597 32.03693 -2.871232
2007-03-16 09:20:06 51°9.237 2°37.375 9.5806 3.623664 32.026936 -2.871232
2007-03-16 09:20:11 51°9.235 2°37.369 9.5781 3.622628 32.015924 -2.871232
2007-03-16 09:20:16 51°9.233 2°37.362 9.5773 3.622628 32.015924 -2.871232
2007-03-16 09:20:21 51°9.23 2°37.356 9.579 3.6218 32.00695 -2.871232
2007-03-16 09:20:26 51°9.228 2°37.349 9.5799 3.62211 32.009169 -2.871232
2007-03-16 09:20:31 51°9.225 2°37.343 9.5788 3.62211 32.009169 -2.871232
2007-03-16 09:20:36 51°9.222 2°37.337 9.5847 3.62211 32.010002 -2.871232
2007-03-16 09:20:40 51°9.22 2°37.332 9.5867 3.622836 32.017126 -2.871232
2007-03-16 09:20:46 51°9.217 2°37.325 9.5879 3.622836 32.017126 -2.871232
2007-03-16 09:20:51 51°9.214 2°37.319 9.5856 3.62439 32.034894 -2.871232
2007-03-16 09:20:56 51°9.211 2°37.313 9.587 3.624493 32.035912 -2.871232
2007-03-16 09:21:01 51°9.208 2°37.307 9.5837 3.624804 32.0398 -2.871232
2007-03-16 09:21:06 51°9.205 2°37.301 9.5847 3.622939 32.019811 -2.871232
2007-03-16 09:21:11 51°9.203 2°37.295 9.5865 3.619728 31.986598 -2.871232
2007-03-16 09:21:16 51°9.2 2°37.289 9.586 3.619728 31.986598 -2.871232
2007-03-16 09:21:21 51°9.198 2°37.282 9.5901 3.61807 31.96782 -2.871232
2007-03-16 09:21:26 51°9.196 2°37.276 9.5902 3.619003 31.976977 -2.871232
2007-03-16 09:21:31 51°9.195 2°37.269 9.5897 3.619728 31.984099 -2.871232
2007-03-16 09:21:36 51°9.192 2°37.263 9.5912 3.622007 32.007318 -2.871232
2007-03-16 09:21:41 51°9.19 2°37.257 9.5921 3.622318 32.009537 -2.871232
2007-03-16 09:21:46 51°9.188 2°37.251 9.5898 3.622318 32.009537 -2.871232
2007-03-16 09:21:51 51°9.186 2°37.245 9.5906 3.622525 32.010739 -2.871232
2007-03-16 09:21:56 51°9.183 2°37.24 9.5947 3.622318 32.007038 -2.871232
2007-03-16 09:22:01 51°9.18 2°37.234 9.597 3.622421 32.007222 -2.871232
2007-03-16 09:22:06 51°9.177 2°37.229 9.5967 3.622732 32.009441 -2.871232
2007-03-16 09:22:11 51°9.174 2°37.223 9.5934 3.623457 32.01573 -2.871232
2007-03-16 09:22:16 51°9.171 2°37.218 9.5901 3.623457 32.01573 -2.871232
2007-03-16 09:22:21 51°9.168 2°37.212 9.5885 3.624286 32.025537 -2.871232
2007-03-16 09:22:26 51°9.166 2°37.206 9.588 3.624286 32.02387 -2.871232
2007-03-16 09:22:31 51°9.164 2°37.2 9.5924 3.623146 32.011011 -2.871232
2007-03-16 09:22:36 51°9.163 2°37.194 9.594 3.623561 32.012581 -2.871232
2007-03-16 09:22:41 51°9.161 2°37.188 9.5953 3.6247 32.022938 -2.871232
2007-03-16 09:22:46 51°9.161 2°37.181 9.595 3.6247 32.022938 -2.871232
2007-03-16 09:22:51 51°9.159 2°37.176 9.5957 3.626358 32.040051 -2.871232
2007-03-16 09:22:56 51°9.159 2°37.17 9.5923 3.627911 32.056982 -2.871232
2007-03-16 09:23:01 51°9.158 2°37.164 9.5905 3.627704 32.054113 -2.871232
2007-03-16 09:23:06 51°9.157 2°37.16 9.5908 3.627083 32.047173 -2.871232
2007-03-16 09:23:11 51°9.157 2°37.155 9.5911 3.626772 32.042453 -2.871232
2007-03-16 09:23:16 51°9.156 2°37.151 9.5927 3.626772 32.042453 -2.871232
2007-03-16 09:23:21 51°9.156 2°37.147 9.5919 3.626772 32.041619 -2.871232
2007-03-16 09:23:26 51°9.156 2°37.145 9.5935 3.626876 32.042636 -2.871232
2007-03-16 09:23:31 51°9.157 2°37.144 9.5955 3.627393 32.049392 -2.871232
2007-03-16 09:23:36 51°9.157 2°37.143 9.5962 3.628326 32.059384 -2.871232
2007-03-16 09:23:41 51°9.158 2°37.143 9.5952 3.628533 32.061419 -2.871232
2007-03-16 09:23:46 51°9.158 2°37.143 9.5923 3.628533 32.061419 -2.871232
2007-03-16 09:23:51 51°9.159 2°37.143 9.5903 3.628637 32.062437 -2.871232
2007-03-16 09:23:56 51°9.159 2°37.144 9.5909 3.629051 32.065672 -2.871232
2007-03-16 09:24:01 51°9.16 2°37.144 9.5907 3.628533 32.060585 -2.871232
2007-03-16 09:24:06 51°9.161 2°37.145 9.5901 3.627601 32.050593 -2.871232
2007-03-16 09:24:11 51°9.161 2°37.145 9.5919 3.627601 32.050593 -2.871232
2007-03-16 09:24:16 51°9.162 2°37.146 9.5937 3.627704 32.050776 -2.871232
2007-03-16 09:24:21 51°9.163 2°37.147 9.5948 3.62874 32.061785 -2.871232
2007-03-16 09:24:26 51°9.164 2°37.148 9.5953 3.629776 32.07363 -2.871232
2007-03-16 09:24:31 51°9.165 2°37.148 9.5942 3.62988 32.076318 -2.871232
2007-03-16 09:24:36 51°9.165 2°37.149 9.5945 3.629983 32.077335 -2.871232
2007-03-16 09:24:41 51°9.166 2°37.15 9.5945 3.629983 32.076501 -2.871232
2007-03-16 09:24:46 51°9.167 2°37.151 9.5938 3.629983 32.076501 -2.871232
2007-03-16 09:24:51 51°9.168 2°37.152 9.5945 3.629776 32.07363 -2.871232
2007-03-16 09:24:56 51°9.168 2°37.153 9.5936 3.629258 32.067708 -2.871232
2007-03-16 09:25:01 51°9.169 2°37.155 9.5937 3.629258 32.067708 -2.871232
2007-03-16 09:25:06 51°9.17 2°37.156 9.592 3.629362 32.068725 -2.871232
2007-03-16 09:25:11 51°9.171 2°37.157 9.5926 3.629258 32.067708 -2.871232
2007-03-16 09:25:16 51°9.171 2°37.158 9.5926 3.629258 32.067708 -2.871232
2007-03-16 09:25:21 51°9.172 2°37.16 9.5923 3.629465 32.069743 -2.871232
2007-03-16 09:25:26 51°9.173 2°37.161 9.5921 3.629465 32.069743 -2.871232
2007-03-16 09:25:31 51°9.174 2°37.162 9.5923 3.629465 32.069743 -2.871232
2007-03-16 09:25:36 51°9.174 2°37.164 9.5923 3.629465 32.070577 -2.871232
2007-03-16 09:25:41 51°9.175 2°37.165 9.5919 3.629362 32.070395 -2.871232
2007-03-16 09:25:46 51°9.176 2°37.166 9.5921 3.629362 32.070395 -2.871232
2007-03-16 09:25:51 51°9.176 2°37.168 9.5934 3.629569 32.07243 -2.871232
2007-03-16 09:25:56 51°9.177 2°37.169 9.5942 3.629362 32.071229 -2.871232
2007-03-16 09:26:01 51°9.178 2°37.171 9.5934 3.629258 32.070212 -2.871232
2007-03-16 09:26:06 51°9.178 2°37.173 9.5928 3.629362 32.070395 -2.871232
2007-03-16 09:26:11 51°9.179 2°37.174 9.5929 3.629569 32.073265 -2.871232
2007-03-16 09:26:16 51°9.18 2°37.176 9.5966 3.629569 32.073265 -2.871232
2007-03-16 09:26:21 51°9.181 2°37.178 9.5965 3.629673 32.074282 -2.871232
2007-03-16 09:26:26 51°9.181 2°37.179 9.5992 3.629776 32.074465 -2.871232
2007-03-16 09:26:31 51°9.182 2°37.181 9.5988 3.62988 32.074648 -2.871232
2007-03-16 09:26:36 51°9.182 2°37.182 9.5971 3.629776 32.07363 -2.871232
2007-03-16 09:26:41 51°9.183 2°37.184 9.5958 3.62988 32.075483 -2.871232
2007-03-16 09:26:46 51°9.183 2°37.186 9.5955 3.62988 32.075483 -2.871232
2007-03-16 09:26:51 51°9.184 2°37.187 9.5966 3.629465 32.069743 -2.871232
2007-03-16 09:26:56 51°9.185 2°37.189 9.5964 3.629155 32.065855 -2.871232
2007-03-16 09:27:01 51°9.185 2°37.191 9.5963 3.628947 32.062986 -2.871232
2007-03-16 09:27:06 51°9.186 2°37.193 9.5961 3.628947 32.062151 -2.871232
2007-03-16 09:27:11 51°9.187 2°37.195 9.5948 3.628844 32.061134 -2.871232
2007-03-16 09:27:16 51°9.187 2°37.197 9.5949 3.628844 32.061134 -2.871232
2007-03-16 09:27:20 51°9.188 2°37.198 9.5941 3.629155 32.065855 -2.871232
2007-03-16 09:27:26 51°9.188 2°37.2 9.593 3.629465 32.068908 -2.871232
2007-03-16 09:27:31 51°9.189 2°37.202 9.5927 3.629673 32.070943 -2.871232
2007-03-16 09:27:36 51°9.189 2°37.203 9.5919 3.629983 32.073161 -2.871232
2007-03-16 09:27:40 51°9.189 2°37.205 9.5912 3.630294 32.077049 -2.871232
2007-03-16 09:27:46 51°9.19 2°37.207 9.5915 3.630294 32.077049 -2.871232
2007-03-16 09:27:51 51°9.191 2°37.209 9.5905 3.630501 32.079919 -2.871232
2007-03-16 09:27:56 51°9.191 2°37.211 9.5914 3.630708 32.082789 -2.871232
2007-03-16 09:28:01 51°9.192 2°37.213 9.5913 3.630812 32.084642 -2.871232
2007-03-16 09:28:06 51°9.192 2°37.215 9.5908 3.630708 32.083624 -2.871232
2007-03-16 09:28:11 51°9.193 2°37.217 9.592 3.630916 32.086495 -2.871232
2007-03-16 09:28:16 51°9.193 2°37.219 9.5924 3.630916 32.086495 -2.871232
2007-03-16 09:28:21 51°9.194 2°37.221 9.5913 3.631019 32.088348 -2.871232
2007-03-16 09:28:26 51°9.194 2°37.223 9.5912 3.630812 32.086312 -2.871232
2007-03-16 09:28:31 51°9.195 2°37.225 9.592 3.630605 32.084277 -2.871232
2007-03-16 09:28:36 51°9.195 2°37.227 9.5925 3.630398 32.083077 -2.871232
2007-03-16 09:28:41 51°9.195 2°37.229 9.5928 3.630191 32.081041 -2.871232
2007-03-16 09:28:46 51°9.196 2°37.231 9.5924 3.630191 32.081041 -2.871232
2007-03-16 09:28:51 51°9.197 2°37.233 9.5943 3.629983 32.07817 -2.871232
2007-03-16 09:28:56 51°9.197 2°37.235 9.5942 3.62988 32.077153 -2.871232
2007-03-16 09:29:01 51°9.198 2°37.238 9.5935 3.62988 32.077988 -2.871232
2007-03-16 09:29:06 51°9.198 2°37.239 9.5941 3.62988 32.077153 -2.871232
2007-03-16 09:29:11 51°9.198 2°37.242 9.594 3.629569 32.0741 -2.871232
2007-03-16 09:29:16 51°9.199 2°37.244 9.593 3.629569 32.0741 -2.871232
2007-03-16 09:29:21 51°9.199 2°37.246 9.5944 3.62988 32.077153 -2.871232
2007-03-16 09:29:26 51°9.2 2°37.248 9.5961 3.62988 32.076318 -2.871232
2007-03-16 09:29:31 51°9.2 2°37.25 9.5968 3.629776 32.076135 -2.871232
2007-03-16 09:29:36 51°9.201 2°37.253 9.5964 3.629673 32.074282 -2.871232
2007-03-16 09:29:41 51°9.201 2°37.254 9.5974 3.629569 32.073265 -2.871232
2007-03-16 09:29:46 51°9.201 2°37.257 9.5986 3.629569 32.073265 -2.871232
2007-03-16 09:29:51 51°9.201 2°37.259 9.5986 3.629673 32.074282 -2.871232
2007-03-16 09:29:56 51°9.202 2°37.261 9.5982 3.629569 32.07243 -2.871232
2007-03-16 09:30:01 51°9.202 2°37.263 9.5991 3.629258 32.068542 -2.871232
2007-03-16 09:30:06 51°9.202 2°37.265 9.5986 3.628947 32.064655 -2.871232
2007-03-16 09:30:11 51°9.203 2°37.267 9.5988 3.628637 32.061602 -2.871232
2007-03-16 09:30:16 51°9.203 2°37.269 9.5984 3.628637 32.061602 -2.871232
2007-03-16 09:30:20 51°9.204 2°37.271 9.5989 3.616102 31.937682 -2.871232
2007-03-16 09:30:26 51°9.204 2°37.274 9.5991 3.628326 32.056881 -2.871232
2007-03-16 09:30:31 51°9.205 2°37.277 9.5972 3.628222 32.055029 -2.871232
2007-03-16 09:30:36 51°9.205 2°37.279 9.5983 3.628222 32.055029 -2.871232
2007-03-16 09:30:41 51°9.206 2°37.281 9.5993 3.628119 32.054012 -2.871232
2007-03-16 09:30:46 51°9.206 2°37.283 9.5988 3.628119 32.054012 -2.871232
2007-03-16 09:30:51 51°9.207 2°37.286 9.5991 3.628119 32.054012 -2.871232
2007-03-16 09:30:56 51°9.207 2°37.288 9.5996 3.628015 32.052994 -2.871232
2007-03-16 09:31:01 51°9.207 2°37.29 9.599 3.628222 32.055029 -2.871232